[{"header": {"dx": 0.06612293990616946, "dy": 0.0552356325346848, "nx": 98, "ny": 59, "la1": 35.046912555036876, "la2": 31.78801023549047, "lo1": -121.43107172385933, "lo2": -114.95102361305473, "refTime": "2026040816", "parameterCategory": 1, "parameterNumber": 2}, "data": [4.87, 4.38, 4.66, 4.52, 5.31, 5.63, 6.73, 7.58, 7.58, 8.57, 8.66, 7.24, 6.7, 2.6, -1.93, -5.21, -6.3, -6.64, -6.63, -7.44, -8.63, -9.03, -8.0, -7.15, -6.71, -6.26, -6.26, -6.14, -6.14, -6.14, -5.64, -5.09, -3.79, -2.4, 0.0, 1.84, 4.43, 4.74, 5.36, 6.4, 7.01, 7.94, 9.33, 9.32, 9.66, 11.28, 13.89, 13.49, 13.88, 11.25, 8.53, 9.3, 10.73, 9.75, 9.2, 8.82, 9.75, 9.89, 10.65, 10.65, 10.28, 10.28, 9.83, 9.39, 8.05, 7.08, 7.1, 8.01, 9.24, 10.58, 11.58, 9.83, 8.94, 8.49, 8.49, 8.49, 9.39, 10.68, 11.18, 9.13, 5.94, 4.92, 4.92, 4.92, 4.92, 3.58, 4.92, 5.81, 5.09, 6.13, 6.28, 6.98, 6.64, 9.39, -0.0, -0.0, -7.2, -7.6, 4.87, 5.15, 4.66, 4.97, 5.5, 6.4, 6.4, 6.95, 7.16, 7.82, 7.44, 6.9, 5.2, 4.8, 0.0, -2.39, -4.44, -6.42, -6.64, -6.73, -8.37, -8.93, -9.03, -8.05, -6.71, -6.71, -6.71, -6.58, -6.23, -5.75, -6.23, -5.6, -5.21, -5.2, 0.0, 2.8, 5.06, 5.06, 5.37, 5.93, 6.28, 7.68, 8.49, 8.85, 10.75, 12.42, 13.79, 13.79, 12.71, 11.53, 11.03, 10.73, 10.28, 9.13, 8.43, 9.2, 9.45, 9.97, 10.47, 10.66, 10.22, 9.83, 9.39, 9.39, 8.05, 7.52, 7.55, 8.45, 9.35, 10.6, 11.05, 10.69, 9.39, 8.49, 8.05, 8.49, 9.83, 10.68, 11.18, 9.13, 5.94, 4.92, 4.92, 4.92, 4.92, 3.58, 4.92, 5.81, 5.09, 6.13, 6.28, 6.98, 6.64, 9.39, -0.0, -0.0, -7.2, -7.6, 4.87, 4.87, 4.38, 4.66, 5.14, 6.1, 6.1, 6.6, 6.8, 7.16, 5.6, 4.6, 4.32, 4.15, 3.65, 0.0, -2.7, -4.4, -5.45, -6.58, -6.95, -8.49, -9.09, -8.54, -7.94, -6.71, -6.71, -6.58, -6.13, -5.93, -5.84, -5.37, -5.72, -6.4, 0.0, 5.37, 5.72, 6.7, 6.01, 5.82, 6.14, 7.63, 9.39, 10.47, 11.67, 12.08, 13.01, 11.18, 10.12, 10.73, 10.28, 9.33, 8.8, 7.87, 8.05, 8.8, 9.46, 9.97, 10.04, 10.22, 10.22, 9.76, 9.29, 8.85, 7.98, 6.94, 7.85, 8.77, 9.68, 10.6, 11.05, 11.14, 10.73, 9.24, 8.56, 8.14, 10.12, 12.01, 11.09, 6.44, 3.72, 4.11, 2.4, 0.0, -2.0, 0.0, 0.0, 5.81, 5.6, 6.7, 8.37, 8.24, 7.27, 9.33, 6.64, -0.0, -5.06, -6.71, 4.87, 4.87, 5.02, 4.38, 5.14, 5.67, 5.85, 6.29, 6.29, 6.4, 6.08, 4.8, 3.19, 1.45, 1.45, 1.45, 0.0, -2.6, -5.21, -6.31, -6.18, -7.56, -9.3, -9.67, -9.05, -8.6, -7.08, -7.01, -5.06, -3.91, -4.26, -4.96, -5.1, -5.1, 0.0, 4.46, 5.36, 6.95, 7.18, 7.38, 8.86, 10.6, 10.48, 9.79, 9.67, 9.92, 7.38, 3.98, -6.95, -0.0, 4.0, 6.64, 6.64, 7.51, 8.05, 8.91, 9.46, 9.6, 10.08, 10.23, 9.77, 9.76, 9.32, 8.67, 7.53, 7.63, 8.56, 8.63, 9.33, 10.75, 11.76, 12.52, 11.91, 8.95, 7.67, 7.81, 9.2, 11.87, 11.5, 2.1, 0.0, 0.0, 0.0, -1.19, -2.2, -1.55, 0.0, 3.79, 5.93, 8.73, 9.16, 8.24, 6.95, 8.91, 7.2, 6.0, 6.26, 5.81, 4.61, 4.61, 5.02, 5.31, 5.63, 6.18, 6.37, 5.85, 6.29, 5.92, 5.18, 4.6, 4.4, 1.45, 1.28, 1.18, 0.0, -1.39, -3.53, -5.75, -6.24, -7.27, -8.37, -9.3, -9.04, -9.1, -7.6, -6.79, -4.71, -1.25, -1.84, -3.36, -5.51, -4.87, 0.0, 1.33, 3.77, 6.94, 8.86, 9.43, 10.48, 9.67, 8.72, 8.76, 8.85, 9.0, 7.74, 7.81, 8.49, 3.8, 4.0, 4.96, 6.32, 6.32, 8.05, 8.91, 9.03, 9.54, 9.64, 9.79, 9.83, 9.76, 9.11, 7.95, 8.06, 8.48, 8.06, 7.63, 8.4, 9.77, 11.45, 12.94, 12.96, 9.08, 4.68, 5.24, 7.64, 9.04, 10.04, 0.0, -0.76, -0.81, -0.96, -2.32, -1.98, -1.05, 1.3, 3.68, 6.95, 9.16, 8.59, 7.33, 7.15, 6.36, 6.26, 6.26, 6.26, 4.74, 5.28, 4.61, 4.76, 5.02, 5.31, 5.81, 6.37, 6.37, 5.85, 5.5, 4.99, 4.4, 5.7, 4.6, 2.95, 1.14, 0.0, 0.0, -1.16, -3.18, -6.72, -7.24, -8.54, -9.42, -8.22, -7.27, -6.98, -3.7, -2.46, -1.33, 0.0, 0.0, -0.82, -2.37, -0.74, 0.0, 1.61, 6.52, 9.67, 8.83, 6.24, 6.0, 6.98, 9.43, 10.55, 10.95, 9.9, 9.33, 9.26, 9.39, 8.48, 7.44, 6.32, 6.32, 7.51, 8.91, 9.03, 9.11, 9.64, 9.79, 9.79, 9.32, 8.6, 7.53, 8.06, 8.17, 8.06, 6.28, 6.8, 7.82, 9.96, 10.62, 10.87, 12.52, 0.0, 1.49, 4.02, 4.43, 1.84, 0.0, 0.0, -1.01, -1.73, -1.84, -0.89, 0.0, 1.05, 4.4, 6.45, 6.98, 6.64, 7.27, 5.69, 6.26, 6.26, 6.07, 6.0, 7.07, 5.28, 5.28, 4.61, 4.76, 5.18, 5.64, 5.99, 6.37, 6.37, 4.81, 4.3, 3.7, 6.58, 8.03, 9.3, 5.7, 2.42, 1.28, 0.0, -1.09, -4.49, -6.73, -8.18, -7.82, -6.6, -5.92, -5.67, -3.36, -3.6, -3.51, -1.39, 1.11, 3.3, 2.7, 0.73, 0.0, 0.79, 4.74, 6.9, 5.67, 4.74, 2.45, 3.6, 6.08, 10.02, 10.29, 11.02, 9.6, 8.99, 10.08, 9.83, 8.67, 8.4, 7.51, 8.05, 8.91, 9.03, 9.32, 9.79, 9.79, 9.79, 9.32, 8.67, 7.37, 6.7, 7.21, 7.63, 7.31, 7.08, 7.1, 9.16, 8.79, 8.79, 11.02, 0.0, -5.0, 0.0, 0.0, 0.0, 2.16, 0.0, 0.0, 0.0, -0.85, 0.0, 0.86, 0.0, 0.0, 10.73, 9.83, 10.28, 10.28, 6.26, 0.0, 3.0, 5.6, 7.47, 7.07, 5.11, 5.28, 5.45, 5.62, 6.09, 6.09, 6.43, 6.8, 5.81, 5.43, 3.85, 2.76, 4.05, 6.98, 9.66, 8.24, 7.56, 5.08, 2.24, 1.25, 0.0, -3.04, -3.91, -5.81, -5.81, -5.04, -4.81, -5.62, -7.06, -7.19, -3.92, 0.0, 2.93, 5.2, 3.76, 1.46, 0.76, 2.41, 4.88, 3.68, 3.41, 3.36, 3.62, 5.13, 6.19, 6.0, 6.57, 8.38, 8.18, 9.2, 8.3, 9.39, 8.72, 8.91, 8.4, 9.03, 9.11, 9.33, 9.39, 9.83, 9.39, 9.39, 8.05, 6.71, 7.52, 7.81, 8.29, 8.49, 7.15, 7.15, 8.05, 8.49, 9.39, 11.18, 11.18, 10.73, 9.39, 4.11, 4.11, 4.4, 2.95, 1.67, 0.89, 0.0, 0.8, 0.92, -2.37, -7.9, -3.82, -0.0, 2.39, -0.0, -5.81, 0.0, 3.0, 5.01, 8.0, 6.01, 5.28, 5.45, 5.18, 5.62, 5.79, 6.09, 6.43, 6.43, 6.4, 4.93, 4.23, 3.46, 1.61, 1.29, 3.96, 7.28, 7.28, 6.3, 3.73, 2.45, 1.77, 0.0, 0.0, -2.06, -2.82, 0.0, -4.4, -8.23, -10.47, -6.9, -2.4, 0.0, 1.17, 3.36, 2.37, 1.64, 1.18, 1.76, 3.11, 1.69, 2.45, 4.52, 4.52, 2.54, 3.32, 2.0, 2.28, 3.53, 5.64, 6.4, 7.87, 8.94, 9.21, 8.91, 9.03, 9.11, 9.33, 9.39, 9.39, 9.39, 9.39, 8.44, 6.65, 7.6, 8.94, 8.94, 8.94, 9.39, 7.98, 7.52, 8.05, 8.9, 10.58, 11.46, 10.73, 8.85, 7.5, 8.05, 10.28, 10.8, 0.0, 2.67, 2.51, 2.44, 3.21, 3.82, 0.0, -4.2, -3.4, -0.0, 1.08, -0.0, 0.0, 0.0, 2.8, 4.43, 6.32, 3.6, 5.45, 5.45, 5.35, 5.35, 5.79, 5.79, 6.09, 6.43, 6.05, 5.1, 4.92, 4.84, 5.06, 3.12, 1.06, 2.4, 4.89, 5.04, 3.1, 1.43, 1.55, 0.0, 0.0, 9.17, 7.9, 9.39, -4.71, -6.24, -8.46, -4.52, 0.0, 0.0, 0.0, 0.0, 0.0, 0.0, 0.0, 7.6, -0.0, 9.83, 3.39, 4.06, 4.13, 3.0, 6.71, 6.32, 2.6, 2.08, 2.08, 3.3, 3.6, 8.24, 8.77, 8.6, 9.11, 9.11, 9.33, 9.39, 9.39, 9.34, 8.45, 7.42, 7.89, 8.77, 8.94, 8.05, 8.49, 8.49, 8.05, 7.98, 8.33, 9.58, 11.36, 11.49, 10.28, 9.39, 8.94, 8.49, 9.39, 11.55, 7.78, 0.0, 3.8, 4.29, 5.09, 6.07, 6.71, 5.51, 4.46, 3.16, 1.27, 4.8, 5.36, 5.6, 4.43, 4.74, 8.49, 0.0, 5.45, 5.45, 5.35, 5.35, 5.99, 6.47, 6.47, 6.6, 6.52, 5.89, 5.6, 6.36, 7.79, 7.69, 3.76, 2.35, 3.9, 4.81, 5.19, 4.37, 2.96, 0.0, 0.0, 13.41, 8.22, 8.94, 0.0, -3.25, -7.19, -3.93, 0.0, -3.14, -8.22, -0.0, 8.22, 0.0, -5.0, -4.4, -0.0, 1.84, 6.8, 2.35, 2.57, 7.2, 3.6, 5.06, 1.84, 0.0, 0.0, -1.32, 0.0, 7.6, 8.49, 8.82, 8.82, 8.94, 9.39, 9.16, 8.99, 8.56, 8.56, 6.8, 8.0, 9.11, 8.49, 8.05, 8.45, 9.39, 8.33, 7.76, 8.4, 9.6, 11.11, 11.02, 10.69, 10.58, 9.06, 8.91, 8.99, 10.7, 10.04, 2.45, 0.0, 6.14, 6.99, 7.45, 8.49, 8.49, 6.71, 4.92, 4.47, 4.24, 4.66, 5.81, 6.07, 6.71, -0.0, -5.06, 5.45, 5.45, 5.18, 5.99, 5.99, 5.99, 6.47, 6.6, 6.2, 5.8, 6.36, 6.57, 8.46, 10.12, 9.97, 8.24, 7.51, 8.58, 10.3, 11.38, 10.43, 8.59, 0.0, -5.2, -5.06, -6.71, -6.26, -2.53, -1.55, -0.0, -8.49, -2.12, -1.23, -1.05, -0.0, -0.0, -7.27, -3.6, -0.0, -0.0, -8.05, 0.0, 0.94, 5.37, 7.15, 6.26, -3.2, -3.2, -3.4, -3.6, -1.49, 0.0, 7.2, 7.63, 8.06, 7.6, 8.48, 8.79, 7.81, 7.41, 7.44, 7.28, 6.64, 8.0, 8.94, 7.74, 8.14, 8.94, 7.76, 6.44, 7.44, 9.2, 10.08, 9.85, 9.85, 10.78, 10.08, 8.8, 9.03, 10.2, 10.0, 7.87, 4.4, 4.2, 6.63, 8.06, 8.82, 9.72, 8.46, 7.11, 5.31, 4.02, 4.02, 5.36, 6.61, 6.71, 2.12, -0.0, 5.45, 5.45, 5.45, 5.99, 5.99, 5.99, 6.28, 6.09, 7.01, 6.57, 6.57, 7.34, 8.1, 10.04, 11.95, 12.94, 12.17, 10.99, 10.2, 11.2, 10.55, 8.55, 7.63, -5.2, -5.51, -4.73, -4.3, -4.0, -3.48, -2.51, -2.95, -3.47, -2.8, -3.22, -0.0, -0.0, -0.0, -0.0, -0.0, -3.6, -8.05, -3.2, 0.0, 2.47, 2.98, 0.0, -2.49, -3.8, -3.8, -2.54, -1.73, -1.07, 0.0, 0.0, 0.0, 2.17, 4.22, 7.2, 5.69, 4.94, 5.2, 4.0, 2.17, 0.0, 8.49, 7.45, 6.16, 6.79, 7.21, 3.4, 4.47, 5.93, 6.52, 7.2, 8.63, 10.21, 10.16, 8.93, 8.38, 8.79, 7.2, 6.99, 7.27, 5.0, 4.83, 7.37, 9.8, 9.55, 8.14, 8.33, 6.55, 5.16, 4.41, 5.36, 6.64, 6.71, 6.0, 3.72, 5.45, 5.45, 6.09, 5.81, 5.99, 5.99, 6.6, 6.69, 6.69, 6.79, 6.79, 7.58, 8.36, 9.49, 11.47, 12.65, 13.81, 13.19, 12.15, 11.34, 10.33, 10.24, 10.58, 8.93, -7.81, -5.59, -4.73, -4.11, -5.05, -5.09, -4.22, -3.79, -5.06, -2.8, -0.0, -0.0, -0.0, -0.0, -0.0, -0.0, -3.4, -1.84, 0.0, 2.42, 2.21, 1.52, 0.0, -1.47, -2.49, -2.49, -1.16, 0.0, 0.0, 0.0, 0.0, 3.6, 4.74, 4.74, 0.0, -2.8, 0.0, 0.0, 0.0, 0.0, 2.26, 4.74, 5.6, 1.23, -0.0, -6.26, -4.74, -6.71, -6.71, -6.26, 5.37, 9.2, 7.68, 6.52, 7.13, 6.79, 5.69, 6.79, 8.75, 9.62, 3.11, 6.42, 9.3, 8.03, 6.32, 6.28, 6.79, 6.28, 5.34, 6.02, 6.07, 6.64, 6.26, 6.51, 5.45, 5.45, 6.09, 5.81, 5.81, 6.6, 6.6, 6.6, 6.69, 7.25, 7.58, 7.58, 8.36, 9.12, 10.54, 12.12, 12.98, 13.27, 13.25, 13.35, 11.99, 11.85, 11.44, 10.99, 0.0, -10.28, -7.15, -4.43, -4.52, -4.66, -4.09, -3.22, -4.43, -0.0, -0.0, 5.37, 8.49, 7.6, 8.49, 7.15, 0.0, 0.0, 1.39, 1.18, 0.0, 5.37, 7.6, 6.71, 0.0, -1.93, 0.0, 0.0, -9.83, -3.4, -0.0, 3.6, 6.71, 4.47, -4.47, -6.4, -5.69, 0.0, 0.0, 0.0, 0.0, 0.0, 6.71, -0.0, 1.98, 3.2, -1.63, -3.2, -3.72, -4.65, -5.21, -7.6, 0.0, 2.54, 4.56, 5.69, 4.75, 5.84, 7.96, 9.63, 8.8, 6.17, 7.59, 7.27, 6.32, 7.21, 7.12, 6.64, 5.69, 5.6, 6.28, 6.61, 5.81, 5.81, 6.09, 6.09, 6.09, 5.81, 5.81, 6.4, 6.4, 6.6, 7.48, 7.25, 7.25, 7.82, 8.36, 9.12, 10.54, 11.7, 12.16, 12.52, 13.27, 13.1, 12.9, 12.79, 12.08, 11.42, 9.96, 0.0, -9.83, -7.15, -5.4, -4.09, -3.09, -2.53, -1.74, -3.2, -0.0, 4.74, 6.8, 7.6, 8.05, 7.6, 0.0, 1.63, 1.4, 0.0, 0.0, 8.05, -0.0, -0.0, 3.0, -0.0, 6.71, -0.0, -0.0, -0.0, -0.0, -0.0, -0.0, -0.0, -8.05, -6.01, -0.0, -0.0, 7.15, 5.06, 3.2, 5.06, 6.26, 7.2, 6.32, 3.0, -1.96, -1.55, -1.98, -5.06, -6.8, -7.81, -8.94, -8.0, -4.0, 0.0, 2.83, 4.83, 5.24, 6.99, 7.4, 5.73, 8.05, 8.49, 7.15, 6.07, 7.31, 4.36, 5.09, 6.54, 6.94, 5.43, 5.2, 5.2, 6.09, 6.09, 6.09, 5.63, 6.4, 6.4, 6.4, 6.6, 7.16, 7.48, 7.48, 8.36, 8.36, 9.12, 10.25, 10.98, 11.44, 11.8, 12.42, 12.76, 12.9, 12.5, 12.25, 10.87, 10.99, 11.09, 11.28, 11.18, 9.83, -3.8, -4.47, -3.22, -2.3, -1.73, -0.0, -0.0, -0.0, -0.0, 6.71, 6.71, 5.81, 0.0, 0.0, 0.0, 0.0, -0.0, -0.0, -0.0, -0.0, -0.0, -0.0, -0.0, -0.0, -0.0, -0.0, -0.0, -0.0, -0.0, -0.0, -0.0, -0.0, 3.8, 3.4, 3.2, 5.06, 5.21, 6.4, 7.15, 3.4, -0.0, -3.2, -4.02, -5.06, -7.21, -7.63, -7.07, -9.11, -10.28, -9.2, -7.81, -6.32, 0.0, 3.6, 5.59, 6.32, 5.37, 5.36, 4.47, 5.2, 6.4, 8.0, 4.42, 3.79, 6.06, 6.79, 5.43, 4.46, 4.46, 6.09, 6.09, 6.09, 6.2, 6.2, 6.4, 6.4, 6.95, 7.16, 7.16, 8.01, 8.01, 8.36, 9.12, 9.95, 10.43, 11.44, 12.07, 11.69, 12.5, 12.52, 12.52, 11.85, 11.5, 11.96, 13.07, 12.94, 12.66, 12.27, 11.62, -2.97, -3.2, -2.2, -1.6, -1.13, -1.99, -2.4, -0.0, -0.0, -0.0, 6.26, 7.15, 0.0, 0.0, -6.01, -8.49, -6.01, -0.0, -0.0, -0.0, -0.0, -0.0, -0.0, -0.0, 8.05, 8.05, 6.01, 6.32, 4.0, 4.0, 4.0, 6.01, 5.69, 3.4, 3.2, 1.98, 5.6, 7.15, -0.0, -0.0, -5.37, -7.6, -8.49, -8.94, -4.2, -0.0, -0.0, -6.95, -9.83, -8.49, -7.15, -6.71, -3.0, 3.45, 3.97, 4.58, 5.37, 5.4, 5.24, 5.93, 7.33, 4.46, 3.47, 5.21, 6.01, 5.06, 4.01, 4.01, 6.09, 6.09, 6.48, 6.2, 6.2, 6.2, 6.95, 6.95, 7.16, 7.16, 8.01, 8.01, 8.01, 8.85, 8.85, 10.4, 10.12, 11.44, 11.09, 11.6, 12.45, 13.56, 12.39, 11.97, 11.38, 13.19, 10.16, 12.13, 11.16, 8.22, -4.6, -2.99, -2.8, -2.23, -2.23, -2.58, -3.16, -3.16, -3.0, -0.0, -0.0, -0.0, -0.0, -5.37, -6.01, -8.49, -6.01, -6.01, -6.01, -0.0, -0.0, -0.0, -0.0, -0.0, 8.05, 8.49, 8.49, 8.94, 6.32, 6.32, 6.32, 6.01, 5.69, 3.0, -0.0, -0.0, 6.71, 7.15, 7.6, 6.32, -0.0, 10.73, 12.07, 10.8, 7.9, 5.7, 8.18, 6.64, -0.0, -4.46, -6.0, -5.94, -4.43, 0.0, 2.21, 3.8, 5.7, 6.86, 7.27, 6.3, 4.83, 4.71, 3.27, 4.6, 5.1, 4.42, 3.55, 3.55, 6.09, 6.09, 6.48, 6.2, 6.2, 6.73, 6.95, 6.95, 7.16, 7.16, 8.01, 8.01, 8.51, 8.85, 8.85, 9.37, 9.66, 9.73, 8.85, 10.03, 14.2, 13.99, 12.59, 12.02, 10.43, 10.43, 10.01, 8.54, 7.44, 0.0, -6.95, -3.8, -2.32, -2.07, -2.23, -2.53, -3.16, -3.79, -4.11, -5.6, -4.74, -2.12, -1.52, -1.41, -2.6, -6.01, -6.01, -6.01, -3.8, -0.0, -0.0, -0.0, -0.0, -0.0, 5.06, 5.69, 8.94, 8.05, 8.49, 9.39, 8.49, 5.69, -0.0, -0.0, -0.0, -0.0, 6.71, 7.15, 7.6, 8.38, 9.46, 11.4, 13.36, 13.86, 13.41, 11.91, 10.96, 10.28, -0.0, -5.06, -6.0, -6.94, -6.71, -4.11, 0.0, 3.0, 3.11, 4.01, 6.71, 5.72, 4.75, 4.96, 3.81, 2.57, 3.32, 3.63, 2.83, 2.83, 5.9, 6.69, 6.48, 6.2, 6.73, 6.73, 6.95, 6.95, 7.16, 7.69, 7.69, 8.01, 8.51, 8.51, 9.23, 9.58, 10.37, 9.08, 7.82, 9.44, 12.01, 12.87, 13.15, 11.49, 10.75, 10.43, 9.42, 7.1, 2.45, 0.0, -5.37, -1.98, -2.2, -1.4, -2.15, -2.84, -3.58, -3.48, -4.46, -4.43, -4.74, -4.74, -3.47, -3.22, -2.4, -5.69, -5.69, -6.01, -3.8, -0.0, -0.0, -0.0, -0.0, -0.0, -0.0, 5.37, 8.49, 8.49, 9.39, 8.49, 8.49, 8.05, -0.0, -0.0, -0.0, -0.0, 4.43, 6.0, 7.06, 7.4, 8.17, 11.02, 12.96, 12.92, 12.22, 10.48, 8.93, 11.18, -0.0, -4.22, -6.94, -6.71, -6.26, -5.36, -5.81, 0.0, 0.0, 2.6, 4.84, 5.46, 6.01, 6.4, 4.05, 1.65, 2.31, 3.15, 2.4, 2.4, 5.9, 6.48, 6.48, 6.2, 6.73, 6.73, 6.73, 6.95, 7.16, 7.69, 7.69, 7.69, 8.51, 8.51, 8.96, 10.01, 10.01, 9.76, 9.13, 9.71, 10.95, 12.22, 12.3, 11.5, 11.5, 11.94, 11.52, 8.66, 0.0, -3.4, 4.47, -0.0, -0.98, -1.8, -2.0, -2.95, -3.48, -4.46, -3.79, -4.11, -4.11, -4.11, -2.98, -2.98, -2.2, -3.79, -6.01, -5.69, -3.6, -0.0, -0.0, -0.0, -0.0, -0.0, -0.0, 8.05, 8.05, 0.0, 0.0, 0.0, 7.6, 7.6, -7.6, -5.37, -0.0, -0.0, -0.0, 4.74, 6.0, 5.69, 8.0, 9.97, 9.83, -6.71, 5.37, 7.9, 7.85, 10.8, 3.53, -0.0, -5.06, -6.71, -6.26, -6.26, -6.07, -4.43, -1.84, 1.14, 4.65, 7.41, 7.97, 7.27, 6.58, 1.49, 0.76, 2.35, 1.73, 1.73, 5.9, 5.9, 6.48, 6.2, 6.73, 6.73, 7.23, 7.46, 7.69, 7.69, 7.93, 7.93, 8.51, 8.96, 8.96, 9.66, 10.4, 9.78, 10.12, 10.76, 12.49, 13.27, 12.27, 11.34, 11.2, 11.17, 11.68, 10.52, 7.9, 0.0, 7.15, -0.0, -0.0, -1.19, -2.2, -2.4, -4.11, -4.11, -4.11, -4.11, -3.79, -2.98, -3.79, -2.95, -2.48, -2.2, -5.69, -3.4, -3.2, -3.2, -0.0, -0.0, -0.0, -0.0, -0.0, 7.6, 7.15, 0.0, 0.0, 0.0, 0.0, 8.05, 8.05, 7.6, -0.0, -0.0, 6.26, 6.26, 6.71, 7.15, 8.05, 8.49, -4.43, -4.43, 5.36, 4.0, 5.75, 7.9, -0.0, -0.0, -0.0, -5.06, -6.71, -7.15, -6.4, -4.02, 0.0, 1.01, 4.74, 6.98, 8.53, 6.98, 6.87, 2.98, 1.27, 1.7, 2.2, 2.2, 6.48, 6.48, 6.48, 6.48, 6.73, 6.73, 7.23, 7.46, 7.69, 7.69, 7.93, 7.93, 8.43, 8.96, 9.23, 9.66, 10.06, 10.09, 10.12, 10.76, 12.07, 12.97, 12.79, 11.5, 10.98, 10.87, 10.87, 10.12, 8.53, 6.95, 6.64, 8.05, -0.0, -1.98, -3.47, -3.47, -3.72, -3.72, -4.43, -4.43, -4.11, -2.98, -2.95, -3.48, -3.16, -3.16, -5.37, -5.37, -2.4, -2.54, -0.0, -0.0, -0.0, -0.0, -0.0, 5.06, 5.6, 6.71, 0.0, 0.0, 0.0, 0.0, 7.6, 7.15, -0.0, -0.0, 7.15, 8.49, 7.6, 7.21, 6.94, -5.2, -6.36, -5.81, -5.81, -5.81, 0.0, 9.39, -0.0, -0.0, -0.0, -1.52, -4.74, -6.71, -6.8, -4.29, -1.18, 0.0, 1.32, 0.0, 4.98, 3.69, 3.22, 3.16, 2.84, 2.53, 2.29, 2.29, 6.48, 6.48, 6.48, 6.48, 6.8, 6.51, 7.23, 7.46, 7.46, 7.69, 7.93, 7.93, 8.43, 9.23, 9.23, 9.66, 9.76, 9.76, 10.12, 10.76, 11.73, 12.54, 12.77, 12.5, 11.5, 10.98, 10.54, 9.27, 8.15, 7.9, 7.27, 9.83, 8.94, -0.0, -3.2, -2.26, -2.4, -3.4, -3.2, -4.43, -4.11, -2.98, -3.93, -3.84, -4.09, -4.09, -5.2, -5.75, -5.06, -4.29, -3.0, -3.8, -0.0, -0.0, -0.0, -0.0, 4.74, 5.2, 7.15, 0.0, 0.0, -3.48, -5.81, 5.36, -0.0, -0.0, 8.49, 8.49, 5.69, 6.94, 8.05, 7.6, -7.15, -6.71, -5.81, -5.81, -5.81, 6.71, 8.05, -0.0, -0.0, -0.0, -0.0, -3.72, -7.6, -5.95, -3.2, -1.73, -3.97, -5.01, -4.43, 0.0, 2.6, 3.79, 3.84, 4.11, 2.76, 2.76, 6.48, 6.48, 6.27, 6.27, 6.8, 6.51, 6.73, 7.46, 7.69, 7.69, 7.69, 7.93, 8.43, 8.68, 9.5, 9.66, 9.76, 9.76, 10.43, 11.09, 11.73, 12.35, 12.54, 12.47, 12.5, 11.53, 10.65, 8.97, 8.24, 7.44, 8.94, 8.93, 9.83, 8.94, -0.0, -3.6, -3.6, -3.6, -3.4, -3.2, -2.8, -4.11, -4.46, -4.29, -4.6, -4.6, -4.98, -5.75, -5.06, -5.06, -4.47, -3.22, -2.4, -0.0, -0.0, -0.0, -0.0, 4.74, 6.0, 7.6, 7.6, -5.06, -3.79, 3.58, -0.0, -0.0, 8.94, 8.49, 3.2, 5.95, 6.8, 6.64, -5.37, -6.94, -6.94, -8.49, -8.49, 6.71, 7.15, 7.6, -0.0, -0.0, 1.41, -0.0, -4.74, -7.15, -7.37, -6.32, -6.4, -4.89, -3.91, 0.0, 3.0, 4.29, 5.06, 4.19, 3.35, 3.35, 6.27, 6.27, 6.27, 6.27, 6.8, 7.03, 6.73, 7.46, 8.18, 8.18, 7.69, 8.43, 8.43, 8.68, 9.16, 9.66, 9.38, 9.76, 10.43, 10.75, 11.73, 12.02, 12.24, 12.17, 12.47, 12.39, 11.34, 9.48, 7.51, 7.56, 8.59, 7.9, 7.68, 8.4, 8.0, 8.49, 8.49, 8.49, -0.0, -0.0, -5.06, -6.26, -5.81, -5.09, -5.2, -4.98, -4.98, -5.01, -4.74, -4.74, -4.19, -3.91, -2.99, -1.83, -1.52, -0.0, -0.0, -0.0, 4.43, 5.58, 8.49, 0.0, 8.05, 5.81, 8.94, 8.49, 8.94, 6.8, 5.37, 5.06, 6.08, 7.2, 7.6, 0.0, -5.81, -7.45, -6.58, -6.26, 0.0, 7.15, -0.0, -0.0, 3.79, 1.84, -0.0, -6.26, -7.37, -6.8, -5.06, -4.74, -4.43, -2.32, 1.98, 3.99, 4.26, 4.16, 3.72, 3.72, 6.27, 6.27, 6.27, 6.27, 6.8, 7.03, 6.73, 7.46, 7.69, 8.18, 8.18, 8.43, 8.43, 8.68, 9.16, 9.95, 9.38, 9.76, 10.06, 11.06, 11.39, 11.4, 12.0, 12.54, 12.47, 12.65, 11.6, 10.12, 7.78, 7.02, 7.9, 7.81, 7.21, 6.98, 7.44, 8.0, 8.94, 8.49, 8.49, 8.05, 7.6, 6.71, 5.81, 5.81, -6.26, -5.94, -5.36, -4.74, -4.74, -4.43, -3.91, -3.63, -3.35, -2.73, -2.2, -1.52, -0.0, -0.0, 4.43, 6.36, 6.79, 8.05, 7.6, -7.6, 8.94, 9.83, 7.6, 8.05, 7.6, 7.21, 7.2, 7.47, 7.89, 8.94, -3.4, -3.93, -5.2, -6.71, -4.74, 0.0, -6.71, -5.81, 5.36, 3.16, 2.2, -0.0, -6.26, -5.95, -5.95, -6.4, -7.15, -4.74, 0.0, 1.55, 3.27, 3.91, 4.03, 4.03, 6.27, 6.27, 6.27, 6.27, 6.8, 7.03, 7.03, 7.46, 7.69, 8.18, 8.18, 8.43, 8.43, 8.68, 9.16, 9.16, 9.66, 9.76, 10.06, 11.06, 11.06, 11.4, 11.68, 11.64, 12.17, 11.96, 11.8, 10.12, 8.83, 7.02, 7.9, 7.81, 7.13, 6.87, 6.98, 7.44, 8.0, 8.0, 8.94, 8.49, 7.6, 6.71, -0.0, -0.0, 7.15, -6.26, -4.84, -3.91, -3.22, -4.19, -3.91, -3.35, -3.48, -3.15, -2.73, -2.3, -2.12, -0.0, 4.43, 5.58, 6.0, -0.0, -5.06, -8.05, 9.39, 6.32, 8.0, 7.2, 6.8, 7.63, 7.2, 7.63, 7.81, 8.3, 9.39, -6.32, -5.6, -5.36, -4.74, 0.0, -4.11, -5.81, -4.43, -0.0, 2.0, 1.41, -0.0, -5.6, -6.71, -0.0, -0.0, -6.71, -3.22, 0.0, 1.58, 2.44, 3.45, 3.45, 6.27, 6.27, 6.27, 6.27, 6.8, 7.03, 7.03, 7.46, 7.69, 8.18, 8.18, 8.18, 8.43, 8.68, 9.16, 9.16, 9.95, 9.66, 10.06, 10.42, 11.06, 11.07, 11.4, 11.68, 11.64, 11.6, 11.44, 10.54, 8.91, 7.02, 7.9, 7.27, 6.95, 7.13, 7.21, 7.33, 8.4, 8.91, 8.0, 8.49, 8.05, -0.0, -0.0, 2.4, 3.48, 7.6, -3.4, -2.07, -2.07, -2.07, -2.3, -2.79, -3.07, -3.48, -3.48, -3.48, -2.53, -0.73, -0.0, -0.0, -3.0, -6.8, -5.37, -8.49, 8.49, 8.05, 5.69, 0.0, 2.8, 5.37, 6.44, 6.52, 7.63, 8.22, 9.55, 10.28, -6.95, -5.95, -5.09, -1.98, 0.0, 6.26, -0.0, -4.11, -0.0, -0.98, -1.8, -3.16, -3.16, -0.0, 1.55, -0.0, -2.76, -0.89, 0.0, 1.52, 2.35, 2.35, 6.27, 6.27, 6.27, 6.27, 6.8, 7.03, 7.03, 7.77, 7.69, 8.18, 8.18, 8.18, 8.43, 8.68, 9.16, 9.16, 9.95, 9.66, 10.4, 10.4, 10.75, 11.09, 11.4, 11.4, 12.0, 11.64, 11.1, 10.22, 8.61, 7.85, 8.22, 8.49, 7.59, 6.95, 6.64, 7.21, 8.05, 8.4, 7.81, 8.0, 8.05, 7.15, -0.0, -0.0, -0.0, -0.0, -3.2, -2.0, -1.6, -2.07, -2.07, -2.79, -2.79, -3.48, -3.78, -3.78, -3.15, -2.98, -2.4, -3.76, -5.58, -7.21, -8.49, 8.49, 8.49, 7.6, 6.71, 0.0, 0.0, 3.47, 2.99, 3.49, 6.23, 8.06, 8.55, 7.9, -4.6, -4.0, -6.36, -4.84, -1.63, 0.0, 5.36, -3.79, -3.79, -4.09, -2.84, -2.84, -2.98, -1.6, -0.0, 3.16, -1.41, -2.35, 0.0, 0.0, 0.81, 0.81, 6.27, 6.27, 6.27, 6.27, 6.8, 7.03, 7.03, 7.77, 7.69, 8.18, 8.18, 8.18, 8.18, 8.43, 9.16, 9.16, 9.95, 10.3, 10.3, 10.4, 10.75, 11.09, 11.41, 11.73, 11.4, 11.64, 11.45, 9.48, 8.02, 7.36, 7.95, 8.53, 7.9, 7.27, 7.47, 6.95, 8.18, 8.43, 8.4, 7.44, 7.6, 7.6, -0.0, -0.0, -1.98, -5.06, -5.58, -3.47, -3.76, -3.76, -2.99, -3.35, -3.07, -2.84, -3.16, -3.78, -4.12, -4.12, -4.12, -4.54, -5.58, -7.6, 8.49, 8.05, 8.49, 8.05, 7.15, 7.6, 5.06, 3.0, 3.22, 5.06, 8.0, 8.94, 8.93, 0.0, -8.91, -5.06, -4.11, -6.26, -4.46, -2.97, 0.0, -6.26, -7.6, -7.21, -5.21, -2.84, -3.48, -2.23, -0.0, 1.13, 4.47, -1.72, -1.44, -0.77, 0.0, 0.0, 6.27, 6.27, 6.27, 6.27, 6.8, 7.03, 7.03, 7.77, 8.01, 8.18, 8.18, 8.18, 8.18, 8.18, 9.16, 9.16, 9.61, 9.95, 10.3, 10.4, 11.06, 11.06, 11.41, 11.09, 11.4, 11.39, 10.77, 9.85, 8.12, 7.41, 7.14, 7.65, 7.59, 7.59, 7.27, 7.13, 7.56, 8.18, 8.05, 7.51, 7.44, 7.2, 7.15, -0.0, -5.6, -5.06, -5.69, -4.22, -4.29, -4.29, -4.02, -4.43, -3.79, -3.48, -3.16, -3.72, -3.72, -4.09, -4.46, -4.22, -4.66, -7.6, 8.94, 7.6, 8.05, 7.6, 7.6, 6.79, 8.05, 8.05, 8.05, 7.6, 7.63, 7.6, 7.59, -11.62, -9.54, -6.32, -5.37, -6.4, -7.6, -3.25, 0.0, 0.0, -5.69, -8.49, -6.4, -1.6, -2.4, -2.48, -1.08, -0.0, 1.6, -1.84, -3.2, -1.75, -1.44, -1.44, 6.07, 6.07, 6.27, 6.27, 6.8, 7.03, 7.03, 7.77, 7.77, 8.18, 8.18, 8.18, 8.18, 8.18, 8.9, 9.16, 9.16, 9.66, 10.01, 10.7, 10.7, 11.06, 11.41, 11.44, 11.09, 11.39, 10.77, 9.48, 9.06, 8.1, 6.7, 6.44, 7.06, 7.59, 7.59, 7.27, 7.13, 7.21, 7.81, 8.05, 7.15, 6.7, 6.8, 7.15, 6.71, -4.74, -5.37, -4.22, -5.69, -4.83, -4.56, -4.74, -4.43, -4.11, -4.19, -3.49, -3.14, -3.49, -3.83, -3.58, -5.37, 7.6, 8.05, 8.05, 7.15, 7.15, 5.06, 6.0, 6.8, 7.2, 8.05, 8.94, 7.07, 6.28, 7.59, -12.07, -10.6, -7.59, 10.73, 9.83, 0.0, 0.0, 0.0, 0.0, 0.0, 0.0, 6.26, -0.0, -0.0, -1.41, -0.98, -0.0, -0.0, 4.02, -3.0, -2.82, -2.31, -2.31, 6.07, 6.07, 6.27, 6.27, 6.8, 6.8, 7.03, 7.77, 7.77, 8.18, 8.18, 8.18, 8.64, 8.64, 8.9, 9.16, 8.9, 9.23, 10.01, 10.3, 10.7, 11.06, 11.41, 11.77, 11.09, 10.76, 10.46, 9.8, 9.06, 8.1, 7.24, 6.98, 7.59, 7.59, 7.59, 7.27, 7.47, 6.95, 7.21, 6.98, 6.32, 5.69, 5.37, 5.06, 7.15, 6.71, -5.06, -5.37, -4.22, -5.69, -5.37, -4.29, -5.06, -4.43, -4.54, -4.19, -3.84, -3.49, -3.14, -3.16, -2.0, -0.0, 7.6, 8.05, 8.05, -0.0, 5.06, 5.06, 6.8, 6.8, 7.15, 6.01, 7.44, 7.44, 9.2, 11.62, -0.0, 12.52, 12.96, 0.0, 0.0, 0.0, 0.0, 0.0, 0.0, 0.0, 5.81, 5.36, -0.0, -0.0, -1.08, -0.88, -0.0, 1.13, 0.0, -3.09, -2.9, -2.9, 6.36, 6.36, 6.57, 6.27, 6.8, 6.8, 7.03, 7.53, 7.77, 7.93, 8.18, 8.18, 8.64, 8.64, 8.64, 8.9, 8.9, 9.23, 10.01, 10.3, 10.7, 11.06, 11.06, 11.77, 11.77, 11.1, 10.46, 10.12, 9.06, 8.67, 7.95, 7.9, 7.59, 7.59, 7.59, 7.27, 6.95, 6.95, 6.95, 6.64, 6.98, 5.69, 5.37, 5.06, 3.2, 7.15, 7.15, -5.37, -4.22, -4.22, -5.37, -5.06, -5.36, -4.43, -4.11, -4.19, -3.84, -3.49, -3.14, -3.16, -3.16, -0.0, -0.0, -0.0, -0.0, 8.94, 8.05, 8.05, 7.2, 7.6, 8.49, 7.15, 8.91, 9.03, 10.41, 10.18, 10.73, 11.18, 8.85, 0.0, 0.0, 0.0, 0.0, 0.0, 0.0, 0.0, 3.48, 4.02, -0.0, -0.0, -0.0, -1.08, -0.98, -0.0, 2.84, -1.99, -3.7, -3.7, 6.36, 6.36, 6.57, 6.57, 7.11, 7.11, 7.03, 7.53, 7.77, 8.25, 7.93, 8.18, 8.18, 8.64, 8.64, 8.9, 8.9, 9.23, 9.58, 10.3, 10.3, 10.7, 11.06, 11.77, 11.44, 11.44, 10.46, 10.12, 9.06, 8.21, 8.02, 7.65, 7.9, 8.41, 8.07, 7.74, 6.95, 6.95, 6.64, 6.64, 6.32, 5.69, 5.06, 6.01, 4.74, 3.2, 7.6, 7.6, -3.4, -5.37, -3.97, -4.74, -4.74, -5.01, -4.11, -3.79, -3.48, -3.49, -3.16, -2.68, -2.48, -0.0, -0.0, -0.0, -0.0, 8.94, 8.05, 8.05, 8.05, 7.6, 7.15, 7.15, 8.94, 10.28, 9.89, 9.45, 8.05, 7.81, 0.0, -8.22, -7.27, -3.8, 0.0, 0.0, 0.0, 0.0, 3.48, 4.92, 4.47, -0.0, -0.0, -1.08, -1.08, -0.0, -0.0, -2.0, -3.22, -3.91, 5.8, 5.8, 6.36, 6.57, 6.57, 7.11, 7.03, 7.53, 7.77, 7.77, 7.93, 7.93, 7.93, 8.38, 8.64, 8.9, 8.9, 8.9, 9.23, 9.87, 10.3, 10.7, 11.06, 11.06, 11.77, 11.11, 10.46, 9.8, 9.36, 8.21, 7.82, 7.72, 7.9, 7.9, 8.41, 8.07, 7.4, 6.95, 6.64, 6.64, 5.72, 5.44, 4.47, 4.46, 3.97, 4.22, 3.4, 7.6, -5.37, -5.06, -5.06, -5.58, -5.21, -4.43, -4.11, -3.79, -3.48, -3.16, -2.79, -2.3, -2.0, -0.0, -0.0, -0.0, -0.0, 8.94, -0.0, 5.37, 7.6, 7.6, 7.15, 8.05, 8.49, 8.77, 10.18, 8.03, 5.59, 5.63, 0.0, -11.2, -7.81, -3.4, 0.0, -2.2, -3.48, 0.0, 0.0, 0.0, 4.92, 4.92, -0.0, -1.41, -2.0, -1.27, -2.84, -4.47, -3.79, -3.22, 5.8, 5.8, 6.36, 6.57, 6.57, 7.11, 7.11, 7.53, 7.77, 7.77, 7.93, 7.93, 7.93, 8.38, 8.64, 8.64, 8.9, 8.9, 9.23, 9.58, 10.3, 10.3, 11.06, 10.75, 11.11, 10.78, 10.12, 9.48, 9.06, 8.49, 8.67, 8.07, 8.22, 8.69, 8.35, 8.02, 7.68, 7.4, 6.64, 6.11, 5.82, 4.94, 4.87, 4.02, 4.71, 3.6, 3.6, 0.0, 7.6, -5.06, -6.0, -4.74, -5.21, -4.43, -4.11, -3.22, -2.95, -2.79, -2.79, -2.0, -1.66, -0.0, -0.0, 8.05, 8.05, -0.0, -0.0, 5.37, 7.6, 8.05, 7.6, 7.21, 7.6, 8.48, 8.91, 6.95, 3.15, 2.82, 2.97, -4.6, -4.74, -2.2, -2.8, -4.11, -3.79, 0.0, 0.0, 0.0, 0.0, 5.81, 4.92, -2.2, -2.48, -2.53, -2.84, -4.92, -4.8, -3.79, 5.8, 5.8, 6.36, 6.36, 6.57, 7.11, 7.11, 7.03, 7.53, 7.77, 8.25, 7.93, 7.93, 7.93, 8.64, 8.64, 8.9, 8.9, 9.23, 9.58, 9.58, 10.01, 11.06, 11.06, 10.75, 10.78, 10.12, 9.02, 8.37, 8.21, 8.21, 8.37, 8.07, 8.64, 8.31, 8.38, 7.68, 7.68, 6.95, 6.64, 6.11, 5.53, 4.68, 4.58, 3.91, 2.28, 0.0, 0.0, 0.0, -6.71, -4.74, -5.6, -4.43, -5.21, -4.11, -3.79, -3.22, -2.3, -2.73, -2.73, -1.41, -0.88, -0.0, -0.0, -0.0, -0.0, -0.0, 6.01, 7.6, 8.05, 7.2, 5.37, 7.6, 7.6, 8.49, 5.37, 1.58, 1.1, 1.23, 0.0, 0.0, 0.0, 0.0, 0.0, 5.37, 5.69, 5.37, 5.06, 5.06, 4.74, 7.15, 6.71, -4.0, -3.2, -4.02, -3.16, -3.79, -3.79, 5.8, 5.8, 6.36, 6.36, 6.36, 7.11, 7.11, 7.03, 7.53, 7.53, 7.99, 7.93, 7.93, 7.93, 8.38, 8.64, 8.64, 8.9, 8.64, 9.23, 9.58, 10.01, 10.01, 10.75, 10.75, 10.78, 9.8, 9.1, 8.37, 7.78, 8.21, 8.37, 8.53, 8.53, 9.0, 8.65, 7.97, 7.27, 7.68, 6.95, 6.18, 5.82, 5.24, 5.24, 6.32, 6.01, 0.0, -1.84, 0.0, 5.36, -5.81, -5.2, -5.2, -4.11, -3.79, -3.79, -2.95, -2.53, -2.73, -2.73, -2.2, -0.81, -0.0, -0.0, -0.0, 8.05, 8.49, 8.05, 7.15, 7.6, 7.2, 5.37, 8.0, 6.32, 7.6, 5.06, 0.0, -1.67, 0.0, 0.0, 0.0, 5.06, 8.48, 9.97, 9.11, 8.24, 6.51, 5.94, 5.94, 4.74, 5.06, 0.0, -5.36, -4.47, 0.0, 0.0, 0.0, 0.0, 5.8, 5.8, 6.36, 6.36, 6.36, 7.11, 7.11, 6.8, 7.53, 7.53, 7.99, 7.69, 7.93, 7.93, 8.38, 8.64, 8.64, 8.64, 8.64, 8.9, 9.23, 10.01, 10.01, 10.75, 10.43, 9.76, 9.43, 9.1, 8.37, 8.01, 7.93, 7.64, 8.12, 8.93, 8.6, 8.27, 8.27, 7.97, 7.27, 6.95, 6.18, 5.89, 5.53, 5.24, 6.01, 6.79, 3.4, 0.0, 0.0, 0.0, -5.36, -5.36, -4.8, -4.8, -3.79, -2.73, -2.2, -2.53, -2.98, -2.98, -2.4, -1.55, -0.0, -0.0, -0.0, 8.05, 8.49, 8.49, 7.15, 6.8, 6.8, 7.2, 6.7, 6.79, 7.2, 7.81, 8.05, -6.32, -4.8, 0.0, 5.6, 13.44, 13.59, 12.35, 10.58, 8.38, 7.06, 6.58, 5.81, 5.6, 5.94, 4.43, 0.0, 0.0, 0.0, 0.0, 0.0, 0.0, 5.6, 5.6, 6.36, 6.36, 6.36, 6.36, 7.11, 6.8, 7.29, 7.53, 7.53, 7.69, 7.93, 7.93, 7.93, 8.64, 8.64, 8.64, 8.64, 8.64, 9.23, 10.01, 10.01, 10.37, 10.37, 10.07, 9.43, 9.1, 7.9, 7.63, 7.51, 7.73, 8.12, 8.53, 8.53, 8.57, 8.59, 7.94, 7.97, 7.27, 6.53, 6.18, 5.36, 5.53, 5.24, 6.01, 6.01, 2.54, 0.0, 0.0, 6.71, -6.26, -5.81, -3.79, -3.79, -2.98, -2.4, -2.76, -2.98, -2.98, -2.6, -1.99, -1.3, -0.0, 5.69, 8.05, 8.49, 7.6, 7.6, 7.15, 8.49, 7.6, 7.63, 7.6, 8.33, 8.49, 8.77, 9.39, 10.28, 12.07, 14.31, 15.43, 15.65, 13.23, 10.6, 9.33, 8.48, 6.36, 6.61, 5.81, 8.94, 0.0, 0.0, 0.0, 1.41, 1.55, 1.55, 1.55, 5.6, 5.6, 6.14, 6.36, 6.36, 6.36, 7.11, 6.8, 7.29, 7.53, 7.53, 7.69, 7.93, 7.93, 7.93, 8.33, 8.64, 8.64, 8.64, 8.64, 8.96, 9.38, 10.01, 10.01, 10.07, 10.07, 9.73, 8.73, 8.01, 7.63, 7.12, 8.01, 7.73, 8.16, 8.9, 8.57, 8.24, 7.94, 7.59, 7.27, 6.53, 6.18, 5.89, 5.59, 5.53, 5.53, 5.31, 5.1, 3.6, 0.0, 0.0, 6.71, -6.71, -4.43, -3.79, -1.7, -2.98, -3.49, -3.63, -3.63, -3.63, -2.16, -1.41, -0.0, 3.79, 8.49, 8.49, 7.6, 6.8, 7.6, 5.37, 5.37, 8.05, 8.05, 8.49, 8.94, 8.77, 9.39, 9.7, 9.2, 9.7, 13.39, 15.2, 12.45, 9.66, 9.6, 9.54, 8.94, 7.6, -0.0, 5.81, 0.0, 1.41, 1.08, 1.19, 2.2, 2.2, 2.2, 5.6, 5.6, 6.14, 6.36, 6.36, 6.36, 6.87, 6.8, 7.29, 7.53, 7.53, 7.69, 7.69, 7.93, 7.64, 8.08, 8.08, 8.38, 8.38, 8.38, 8.64, 8.96, 9.71, 10.01, 10.01, 10.07, 9.37, 9.02, 8.29, 7.54, 7.63, 7.63, 8.01, 8.16, 8.53, 8.22, 8.57, 7.9, 7.59, 7.27, 6.53, 6.24, 5.89, 5.89, 6.01, 5.53, 5.44, 5.31, 4.71, 3.6, 0.0, 0.0, 7.15, 6.71, -4.11, -2.6, -1.84, -3.22, -4.43, -3.91, -3.91, -3.22, -1.41, -0.0, 2.98, 8.49, 8.05, 8.05, 8.05, 5.37, -0.0, -0.0, 8.05, 8.49, 8.94, 8.94, 8.94, 9.39, 8.91, 8.4, 9.04, 11.45, 14.75, 11.9, 0.0, 10.73, -0.0, -0.0, -0.0, -4.0, 3.58, 0.0, 2.0, 1.08, 2.2, 2.2, 2.2, 2.2, 5.6, 5.6, 6.14, 6.14, 6.36, 6.36, 6.87, 6.8, 6.8, 7.29, 7.53, 7.23, 7.69, 7.93, 7.64, 7.64, 8.08, 8.08, 8.38, 8.38, 8.64, 8.96, 10.01, 10.01, 10.01, 9.66, 9.37, 8.66, 7.93, 7.79, 7.54, 7.63, 7.63, 8.16, 8.53, 8.22, 8.22, 8.24, 7.9, 7.59, 6.88, 6.53, 5.76, 5.89, 5.89, 5.53, 4.94, 5.44, 5.31, 4.83, 4.46, 3.4, 7.15, 7.15, -0.0, -0.0, -0.0, -1.84, -3.76, -4.43, -3.91, -3.76, -1.52, -0.0, 1.3, 5.69, 8.05, 8.05, 8.05, 8.05, 7.6, 3.8, -0.0, 8.94, 8.94, 8.94, 8.94, 8.94, 8.0, 8.3, 9.26, 9.89, 12.79, 14.3, -13.41, -8.38, -3.91, -1.41, -4.4, -4.66, -4.02, 4.02, 0.0, 1.41, 1.19, 1.83, 1.83, 1.83, 5.6, 5.6, 6.14, 6.14, 6.14, 6.36, 6.87, 6.8, 6.8, 7.29, 7.53, 7.23, 7.69, 7.93, 7.64, 7.64, 7.64, 8.08, 8.38, 8.38, 8.38, 8.96, 9.3, 9.71, 9.3, 9.3, 8.94, 8.66, 8.2, 8.29, 7.54, 7.9, 7.63, 7.8, 8.16, 8.22, 8.22, 7.9, 7.9, 7.22, 7.59, 6.88, 6.53, 5.76, 5.89, 5.82, 5.53, 5.44, 5.44, 5.03, 4.83, 2.4, 0.0, 7.15, -0.0, -0.0, -0.0, -2.8, -3.47, -4.43, -4.74, -4.02, -2.8, -0.0, -0.0, -0.0, 5.37, 8.05, 8.05, 8.05, 8.94, 8.94, -0.0, -0.0, 8.49, 8.49, 8.49, 8.05, 8.06, 8.24, 8.94, 8.77, 9.13, 11.62, -12.07, -7.59, -0.0, -0.0, 4.02, -4.47, -4.02, -4.02, 0.0, 0.0, 1.08, 1.19, 1.19, 1.19, 5.6, 5.4, 5.6, 6.14, 6.14, 6.36, 6.87, 6.57, 6.8, 7.29, 7.53, 7.23, 7.93, 7.64, 7.4, 7.4, 7.4, 7.83, 7.83, 8.38, 8.38, 8.96, 8.96, 9.3, 9.3, 9.3, 8.58, 8.94, 8.2, 7.93, 8.29, 7.54, 7.9, 8.09, 7.8, 8.22, 7.9, 7.9, 7.9, 7.59, 7.22, 6.88, 6.42, 6.53, 6.18, 5.36, 5.82, 4.94, 5.15, 4.46, 4.14, 4.22, 3.4, 7.15, 7.15, 6.71, -0.0, -0.0, -4.43, -4.43, -4.74, -4.74, -3.76, -2.6, -0.0, -0.0, 5.06, 7.6, 7.6, 5.37, 5.69, 6.01, 8.94, -0.0, 6.01, 8.49, 8.05, 8.05, 8.05, 8.49, 8.49, 8.24, 7.6, 7.6, -11.18, -2.83, -0.96, -0.0, 4.92, 2.0, 0.0, -4.02, -3.58, 0.0, 0.0, 0.0, 0.0, 0.0, 5.4, 5.68, 5.4, 6.14, 6.14, 6.14, 6.87, 6.57, 6.8, 7.29, 7.23, 7.23, 7.46, 7.64, 7.4, 7.16, 7.16, 7.4, 8.08, 8.08, 8.38, 8.38, 8.96, 8.96, 8.96, 8.85, 8.58, 8.58, 8.2, 7.93, 8.29, 7.54, 8.01, 8.09, 8.49, 8.19, 8.22, 7.55, 7.25, 7.59, 7.22, 6.51, 6.88, 6.14, 5.76, 5.36, 5.36, 4.94, 4.94, 4.46, 5.03, 4.83, 5.37, 7.6, 7.15, 7.15, 6.26, -0.0, -4.43, -4.43, -5.36, -4.74, -4.74, -2.8, -1.41, -0.0, 3.0, 4.74, 6.71, 7.15, 7.15, 0.0, 8.05, 8.94, 6.64, 6.32, 8.49, 8.05, 8.05, 8.49, 8.49, 8.05, 7.63, 7.2, -8.85, -4.6, -0.96, -0.0, 4.92, 3.79, 1.55, 0.0, -3.16, 0.0, 0.0, 0.0, 0.0, 0.0, 5.68, 5.68, 5.4, 5.92, 6.14, 6.14, 6.14, 6.57, 6.57, 7.29, 7.23, 7.23, 7.17, 7.4, 7.16, 7.16, 7.4, 7.4, 8.08, 8.08, 8.38, 8.69, 8.96, 8.96, 8.96, 8.25, 8.58, 7.85, 8.2, 7.93, 7.79, 7.54, 7.54, 8.09, 8.09, 8.19, 8.22, 7.85, 7.55, 7.25, 7.22, 6.92, 6.51, 6.14, 6.53, 5.76, 4.96, 4.5, 4.94, 4.68, 4.46, 4.83, 5.69, 7.6, 7.6, 7.15, 6.71, 6.71, -0.0, -4.74, -5.58, -5.36, -5.36, -4.74, -3.22, -0.0, -0.0, 4.74, 4.74, 5.06, 5.06, 7.15, 6.71, 7.15, 6.32, 8.49, 8.49, 8.49, 6.01, 8.49, 8.49, 8.49, 8.05, -7.59, -10.41, -5.75, -2.26, -0.0, 1.6, 3.58, 1.8, -2.0, -3.48, -2.0, 0.0, 0.0, 0.0, 0.0, 5.68, 5.68, 5.68, 5.92, 6.14, 6.14, 6.14, 6.57, 6.57, 6.8, 7.23, 7.23, 6.94, 7.23, 6.99, 6.72, 7.4, 7.4, 7.4, 7.93, 8.38, 8.69, 8.96, 8.96, 8.51, 8.25, 8.1, 7.85, 8.2, 7.44, 7.79, 7.54, 7.54, 8.37, 8.09, 8.19, 8.19, 7.51, 7.55, 7.55, 6.87, 6.92, 6.92, 6.58, 6.14, 5.38, 4.96, 4.96, 4.5, 4.94, 4.71, 5.03, 6.7, 7.2, 6.8, 6.8, 7.15, 6.71, 6.71, -4.74, -4.74, -5.36, -5.36, -5.36, -4.43, -1.7, -0.0, 3.48, 6.4, 6.4, 3.2, -0.0, -0.0, 7.15, 7.15, 7.15, 8.05, 6.01, 3.8, 6.01, 6.01, 8.49, -0.0, -10.28, -11.28, -7.59, -3.91, -0.88, -0.0, -0.0, -2.84, -4.0, -4.0, -3.16, -2.2, -1.55, -1.55, -1.55, 5.68, 5.68, 5.68, 5.92, 5.92, 6.14, 6.14, 6.57, 6.57, 6.51, 6.99, 6.99, 6.99, 6.99, 6.76, 6.99, 7.23, 7.69, 7.69, 7.93, 8.69, 8.69, 8.69, 8.25, 8.25, 8.25, 7.85, 7.85, 7.69, 7.44, 7.19, 7.54, 7.54, 7.9, 8.09, 8.49, 7.8, 7.51, 7.51, 7.22, 6.87, 6.87, 6.58, 6.23, 6.23, 5.86, 5.38, 4.96, 5.36, 4.94, 5.44, 5.31, 5.69, 6.7, 7.2, 6.8, 6.8, 7.15, 7.15, 7.15, -6.0, -5.58, -6.0, -6.0, -5.58, -2.8, -0.0, 3.79, 6.4, 6.8, 3.4, 3.6, 5.69, 8.49, 8.49, 8.05, 6.8, 5.69, 3.8, 0.0, 0.0, 7.6, -4.74, -8.05, -10.28, -7.81, -2.68, -1.83, -1.49, -3.35, -4.47, -3.82, -3.6, -3.16, -2.2, -1.55, -1.55, -1.55, 5.47, 5.47, 5.68, 5.92, 5.92, 5.92, 6.35, 6.57, 6.35, 6.57, 6.3, 7.04, 7.04, 7.04, 7.04, 6.99, 7.23, 7.23, 7.23, 7.69, 8.38, 8.69, 8.69, 8.25, 8.25, 8.25, 7.85, 7.85, 7.44, 7.44, 7.19, 7.54, 7.54, 7.63, 8.09, 8.09, 7.8, 7.8, 7.51, 7.09, 6.81, 6.87, 6.87, 6.58, 6.51, 6.23, 5.86, 5.38, 4.96, 5.36, 4.94, 6.01, 6.44, 5.69, 6.7, 5.37, 5.37, 5.06, 7.15, 7.15, -7.15, -6.0, -6.0, -6.4, -6.79, -5.6, -0.0, 2.6, 4.84, 6.8, 7.2, 5.69, 5.69, 8.49, 8.49, 8.49, 8.05, 6.32, 4.46, 0.0, 0.0, -0.0, -1.84, -5.51, -8.05, -7.2, -2.98, -3.79, -3.07, -3.22, -4.02, -5.2, -6.0, -3.79, -2.0, -1.41, -1.41, -1.41, 5.47, 5.47, 5.98, 5.92, 5.7, 5.92, 6.12, 6.35, 6.35, 6.35, 6.57, 6.57, 7.04, 7.04, 6.76, 6.99, 7.23, 7.23, 7.23, 7.69, 7.69, 8.38, 8.69, 8.25, 8.25, 7.53, 7.85, 7.6, 7.11, 7.44, 7.19, 7.54, 7.54, 7.54, 8.09, 8.09, 7.8, 7.51, 7.09, 7.09, 6.81, 6.81, 6.87, 6.58, 6.17, 6.51, 6.14, 6.14, 5.76, 5.89, 5.82, 6.01, 6.63, 6.44, 5.69, 5.69, 5.37, 5.37, 5.06, 7.15, 7.15, -7.15, -6.79, -6.94, -6.79, -6.0, -4.43, 2.6, 4.11, 6.8, 7.2, 5.69, 6.8, 7.6, 8.05, 8.05, 7.6, 7.63, 5.69, 2.4, 0.0, -0.0, -2.4, -3.22, -6.79, -8.49, -4.24, -3.84, -3.79, -2.84, -4.24, -6.71, -5.94, -3.16, -2.0, -1.7, -1.7, -1.7, 5.47, 5.47, 5.98, 5.7, 5.7, 5.92, 6.4, 6.4, 6.12, 6.35, 6.35, 6.57, 7.04, 6.76, 6.76, 6.99, 6.99, 7.23, 7.23, 7.69, 7.69, 8.38, 8.38, 8.25, 7.99, 7.53, 7.85, 7.6, 7.11, 7.19, 7.19, 7.54, 7.54, 7.54, 8.09, 8.09, 7.8, 7.8, 7.09, 7.09, 6.81, 6.81, 6.87, 6.44, 6.17, 6.51, 6.23, 6.14, 6.24, 6.18, 6.32, 6.52, 6.63, 6.01, 5.69, 5.69, 4.22, 5.37, 5.06, 5.06, 7.15, 7.15, -7.15, -7.21, -7.21, -6.79, -4.43, -0.0, 2.8, 5.69, 5.69, 5.37, 6.4, 6.4, 5.06, 7.6, 7.6, 7.6, 6.8, 3.4, 5.69, 8.05, -0.0, -3.72, -6.79, -9.39, -7.6, -4.22, -3.79, -3.16, -3.72, -5.36, -4.66, -3.48, -4.11, -2.26, -2.26, -2.26, 5.26, 5.26, 5.75, 5.7, 5.7, 5.44, 5.7, 6.4, 6.4, 6.35, 6.35, 6.57, 6.57, 6.76, 6.76, 6.99, 7.23, 6.99, 6.94, 7.4, 7.4, 8.08, 8.38, 8.38, 7.99, 7.99, 7.6, 7.6, 7.11, 7.19, 7.19, 7.54, 7.28, 7.28, 8.09, 8.09, 7.8, 7.8, 7.36, 7.09, 7.09, 6.36, 6.71, 6.44, 6.44, 6.51, 6.05, 6.14, 6.53, 6.18, 6.64, 6.32, 6.01, 6.01, 5.69, 4.83, 5.69, 4.22, 5.37, 5.37, 5.37, 7.6, 7.6, -7.6, -7.21, -6.79, -6.71, 6.71, -0.0, 3.0, 6.0, 7.6, 6.8, 6.4, 5.06, -0.0, 8.05, 8.05, 7.6, 5.69, 5.69, 8.05, -0.0, -5.37, -7.21, -9.39, -9.39, -6.58, -4.89, -3.84, -3.93, -4.77, -5.81, -7.21, -6.01, -4.0, -4.0, -4.0, 5.75, 5.75, 5.48, 5.48, 5.48, 5.7, 5.7, 6.4, 6.4, 6.35, 6.35, 6.35, 6.3, 6.76, 6.76, 6.99, 6.99, 6.72, 6.72, 6.94, 7.4, 7.4, 8.08, 8.38, 7.99, 7.73, 7.29, 7.6, 6.87, 7.19, 7.19, 7.54, 7.28, 7.28, 8.09, 8.09, 7.8, 7.8, 7.09, 7.09, 7.09, 6.36, 6.71, 6.44, 6.79, 6.79, 6.31, 6.42, 6.83, 6.48, 6.18, 6.32, 5.72, 6.01, 5.31, 5.69, 4.83, 5.69, 5.69, 5.37, 6.8, 5.37, 7.6, -8.05, -8.05, -7.6, -7.15, -7.15, 7.15, 6.71, 6.4, 8.0, 7.2, 7.6, 6.4, 5.37, 7.6, 8.05, 7.6, 5.37, 5.69, 5.69, 8.05, -6.8, -7.6, -8.94, -9.39, -7.6, -6.58, -6.23, -4.8, -6.71, -8.05, -8.94, -8.0, 0.0, 0.0, 0.0, 5.75, 5.75, 5.48, 5.48, 5.48, 5.7, 5.7, 6.4, 6.12, 6.35, 6.35, 6.35, 6.57, 6.3, 6.76, 6.99, 6.72, 6.72, 6.46, 6.94, 7.4, 7.4, 7.4, 8.11, 7.69, 7.73, 7.73, 7.6, 7.34, 7.19, 7.19, 7.28, 7.28, 7.28, 8.09, 8.09, 7.8, 7.8, 7.09, 7.09, 6.81, 6.36, 6.71, 6.44, 7.08, 6.31, 6.7, 6.7, 6.31, 6.04, 6.11, 6.11, 5.72, 5.72, 5.31, 5.31, 5.69, 5.69, 5.69, 6.7, 7.2, 7.2, 5.69, 8.05, -8.05, -7.6, -7.15, -7.15, 7.15, 6.71, 7.15, 7.15, 6.0, 8.94, 6.79, 6.4, 7.6, 8.05, 0.0, 5.37, 5.37, 3.4, 7.6, -7.6, -7.15, -8.49, -8.94, -8.49, -7.6, -7.15, -7.15, -8.05, -8.49, -8.06, -6.01, 0.0, 0.0, 0.0, 5.75, 5.75, 5.48, 5.48, 5.48, 5.7, 5.7, 6.4, 6.12, 6.35, 6.35, 6.35, 6.57, 6.3, 6.76, 6.99, 6.72, 6.72, 6.46, 6.94, 7.4, 7.4, 7.4, 8.11, 7.69, 7.73, 7.73, 7.6, 7.34, 7.19, 7.19, 7.28, 7.28, 7.28, 8.09, 8.09, 7.8, 7.8, 7.09, 7.09, 6.81, 6.36, 6.71, 6.44, 7.08, 6.31, 6.7, 6.7, 6.31, 6.04, 6.11, 6.11, 5.72, 5.72, 5.31, 5.31, 5.69, 5.69, 5.69, 6.7, 7.2, 7.2, 5.69, 8.05, -8.05, -7.6, -7.15, -7.15, 7.15, 6.71, 7.15, 7.15, 6.0, 8.94, 6.79, 6.4, 7.6, 8.05, 0.0, 5.37, 5.37, 5.37, 6.8, 7.6, -7.15, -7.6, -8.49, -8.49, -8.49, -7.6, -8.05, -8.24, -8.24, -8.06, -3.8, 0.0, 0.0, 0.0]}, {"header": {"dx": 0.06612293990616946, "dy": 0.0552356325346848, "nx": 98, "ny": 59, "la1": 35.046912555036876, "la2": 31.78801023549047, "lo1": -121.43107172385933, "lo2": -114.95102361305473, "refTime": "2026040816", "parameterCategory": 1, "parameterNumber": 3}, "data": [-12.98, -13.15, -13.05, -13.57, -13.28, -12.66, -12.11, -12.13, -12.13, -12.0, -10.82, -9.66, -10.04, -10.41, -9.64, -7.81, -7.56, -6.64, -5.31, -4.96, -3.7, -2.58, -0.89, -0.0, -0.0, -0.0, -0.0, -1.23, -1.23, -1.23, -1.41, -1.7, -3.79, -4.8, -5.36, -5.51, -4.43, -4.74, -4.02, -3.2, -1.4, -1.32, -3.11, -5.32, -7.24, -8.05, -8.99, -10.32, -11.28, -10.22, -8.53, -6.2, 0.0, 3.25, 4.6, 5.29, 3.25, 2.82, 1.33, 1.33, 0.0, 0.0, 0.0, 0.0, 0.0, 1.01, 0.89, 0.8, 1.68, 1.76, 0.97, 0.0, 0.0, 0.0, 0.0, 0.0, 0.0, -1.07, -3.19, -3.65, -1.98, 0.0, 0.0, 0.0, 0.0, 0.0, 0.0, 0.0, -1.7, -3.68, -5.03, -5.59, -6.64, 0.0, 8.94, 8.49, 3.6, -0.0, -12.98, -12.87, -13.05, -12.93, -13.2, -12.79, -12.79, -12.5, -12.9, -12.51, -11.16, -11.5, -10.4, -9.6, -10.73, -9.54, -7.76, -8.03, -6.64, -5.89, -5.98, -5.1, -2.58, -0.0, -0.0, -0.0, -0.0, -1.32, -2.49, -3.45, -2.49, -2.8, -3.47, -2.6, -6.26, -5.6, -5.06, -5.06, -5.37, -4.75, -5.03, -6.14, -7.27, -8.85, -10.75, -11.59, -12.07, -12.07, -10.59, -7.69, -3.68, 0.0, 0.0, 3.65, 5.06, 4.6, 4.05, 2.49, 2.33, 1.18, 1.14, 0.0, 0.0, 0.0, 0.0, 1.07, 0.84, 0.85, 0.85, 1.63, 1.7, 0.89, 0.0, 0.0, 0.0, 0.0, 0.0, -1.07, -3.19, -3.65, -1.98, 0.0, 0.0, 0.0, 0.0, 0.0, 0.0, 0.0, -1.7, -3.68, -5.03, -5.59, -6.64, 0.0, 8.94, 8.49, 3.6, -0.0, -12.98, -12.98, -13.15, -13.05, -13.35, -13.43, -13.43, -13.19, -13.59, -12.9, -11.2, -9.2, -10.79, -10.38, -9.13, -9.83, -9.46, -8.8, -8.72, -7.9, -6.95, -7.27, -6.5, -4.88, -1.32, -0.0, -0.0, -1.32, -3.68, -4.75, -4.87, -5.37, -4.29, -3.2, -6.26, -5.37, -4.29, -4.46, -6.01, -6.79, -7.68, -9.92, -12.52, -14.5, -15.83, -15.53, -14.75, -12.19, -10.12, 0.0, 0.0, 3.11, 4.4, 5.9, 4.83, 4.4, 2.7, 2.49, 2.23, 1.14, 1.14, 1.22, 1.33, 1.26, 1.0, 1.73, 1.75, 1.75, 1.76, 1.63, 1.7, 0.86, 0.0, -1.68, -2.57, -2.44, -1.84, -1.2, -4.75, -8.58, -5.58, -4.11, -4.8, -5.36, -4.0, -4.02, -4.47, 0.0, -2.8, -4.46, -5.98, -6.87, -7.27, -3.11, 6.64, 8.05, 5.06, -0.0, -12.98, -12.98, -13.39, -13.15, -13.35, -13.62, -14.03, -13.84, -13.84, -12.79, -10.94, -9.6, -11.18, -10.18, -10.18, -10.18, -10.28, -10.41, -9.38, -8.12, -7.06, -6.3, -6.97, -6.45, -5.76, -2.46, -1.01, -1.4, -5.06, -6.52, -6.82, -7.44, -6.79, -6.79, -8.05, -6.7, -7.15, -6.95, -7.97, -10.66, -12.89, -15.5, -16.12, -15.5, -14.51, -13.23, -10.66, -9.96, 6.95, 9.39, 8.0, 6.64, 6.64, 5.63, 4.83, 2.97, 2.7, 2.13, 2.02, 1.02, 1.09, 1.22, 1.16, 2.17, 2.83, 2.54, 2.57, 2.35, 3.11, 3.07, 2.71, 0.0, -1.98, -4.07, -4.6, -5.21, -4.6, -3.96, -6.9, -10.52, -5.81, -4.47, -4.92, -4.77, -4.4, -4.66, -5.36, -3.79, -4.75, -6.24, -7.85, -6.87, -6.95, -2.97, 3.6, 3.0, 0.0, 0.0, -13.07, -13.07, -13.39, -13.28, -13.15, -13.39, -13.8, -14.03, -13.84, -13.02, -11.39, -9.2, -10.27, -10.18, -10.2, -10.66, -10.73, -11.09, -10.6, -9.58, -8.73, -7.27, -5.98, -6.97, -6.57, -5.69, -3.8, -5.1, -7.07, -7.5, -8.29, -9.24, -10.23, -10.55, -10.73, -10.65, -10.05, -10.41, -12.89, -15.72, -16.12, -14.51, -11.9, -9.56, -8.85, -7.36, -6.77, -5.21, 0.0, 7.6, 8.0, 7.44, 6.32, 6.32, 4.83, 2.97, 2.58, 2.39, 1.93, 0.98, 0.0, 1.22, 2.28, 2.98, 2.69, 2.83, 2.69, 2.54, 4.2, 4.44, 3.82, 3.53, 0.0, -7.26, -6.55, -6.11, -5.46, -3.87, -6.7, -11.18, -5.31, -4.85, -4.82, -5.81, -5.94, -5.26, -5.2, -6.13, -6.95, -7.85, -7.15, -5.86, -5.36, -2.12, 0.0, 0.0, 0.0, -4.74, -12.81, -13.07, -13.49, -13.39, -13.28, -13.56, -13.8, -13.8, -14.03, -13.2, -10.99, -8.8, -8.55, -9.2, -10.32, -10.22, -10.73, -11.18, -11.57, -11.64, -10.56, -9.66, -9.76, -8.24, -8.22, -8.49, -8.15, -8.63, -8.6, -9.29, -8.49, -9.39, -9.8, -11.84, -13.39, -12.96, -12.86, -12.23, -14.51, -16.06, -14.83, -11.99, -8.73, -6.0, -4.87, -3.91, -4.13, -3.11, -1.54, 0.0, 2.83, 4.96, 6.32, 6.32, 5.63, 2.97, 2.58, 2.28, 1.93, 0.89, 0.98, 1.16, 2.46, 2.83, 2.69, 3.63, 2.69, 2.35, 3.4, 4.34, 3.98, 4.72, 6.21, 0.0, -11.62, -7.45, -5.36, -4.43, -5.51, -9.39, -5.81, -7.08, -6.94, -7.37, -8.0, -8.49, -8.43, -8.8, -9.67, -8.73, -6.64, -7.27, -5.69, 0.0, 0.0, -1.52, -3.0, -4.71, -12.81, -12.81, -13.07, -13.49, -13.81, -14.11, -13.97, -13.8, -13.8, -12.52, -10.32, -8.14, -7.9, -6.42, -6.97, -8.55, -10.91, -11.55, -12.07, -12.02, -11.68, -12.62, -12.27, -13.03, -13.19, -13.02, -13.62, -13.44, -11.99, -9.66, -9.74, -8.87, -8.79, -8.99, -11.6, -13.86, -14.28, -13.02, -11.5, -12.15, -13.02, -12.27, -11.99, -10.94, -8.91, -7.12, -5.93, -4.8, -3.99, -2.02, 0.0, 2.17, 4.2, 5.63, 4.83, 2.97, 2.58, 1.16, 0.98, 0.89, 0.98, 1.16, 2.17, 1.84, 2.51, 2.4, 2.54, 2.09, 1.01, 0.89, 2.04, 3.3, 3.3, 1.84, -12.07, -10.0, -6.26, -4.92, -4.92, -5.4, -6.26, -8.49, -9.39, -10.25, -11.18, -11.14, -11.62, -11.62, 0.0, 0.0, 0.0, 0.0, 0.0, -6.26, -6.0, -2.8, -2.99, -4.71, -12.4, -12.81, -13.23, -13.64, -13.92, -13.92, -13.77, -13.59, -13.56, -11.77, -10.01, -8.97, -9.45, -8.73, -7.24, -6.87, -8.82, -11.44, -12.31, -12.45, -12.52, -12.14, -10.95, -14.53, -14.53, -13.86, -14.42, -14.6, -12.95, -10.79, -10.46, -11.62, -11.71, -10.4, -10.52, -12.43, -12.94, -10.45, -8.54, -11.03, -12.51, -13.44, -15.68, -16.66, -14.86, -11.99, -9.04, -6.7, -5.46, -4.6, -3.32, 0.0, 3.49, 2.97, 4.2, 2.58, 2.28, 1.04, 0.0, 0.0, 0.0, 0.0, 0.0, 0.0, 1.07, 1.95, 1.84, 0.0, 0.0, 0.0, 0.0, 0.0, 0.0, 0.0, 0.0, 0.0, 0.0, -4.11, -4.11, -8.8, -10.32, -8.33, -9.79, -11.18, -12.04, -12.93, -11.84, 7.9, 9.55, 9.39, 9.54, 4.92, -0.0, -6.26, -6.0, -3.76, -4.0, -6.01, -12.81, -13.23, -13.33, -13.64, -14.05, -13.92, -13.77, -13.77, -12.79, -11.5, -9.86, -9.68, -12.86, -12.9, -11.87, -10.19, -10.19, -11.33, -12.42, -12.27, -12.39, -12.96, -12.96, -12.35, -11.28, -11.62, -8.8, -10.59, -11.63, -11.5, -13.19, -14.75, -15.15, -13.44, -11.84, -11.51, -10.66, -10.58, -9.33, -10.14, -12.27, -13.57, -13.57, -12.71, -11.61, -11.0, -11.4, -10.6, -8.06, -7.47, -5.9, 0.0, 1.84, 2.97, 2.58, 2.28, 1.04, 0.0, 0.0, 0.0, 0.0, -0.94, -0.83, 0.0, 0.0, 0.0, 0.0, 0.0, -1.0, -1.07, 0.0, -0.81, -1.76, -1.91, 0.0, 1.26, 1.25, 0.0, 0.0, -5.4, -12.96, -7.12, -6.7, -8.14, -8.82, -9.55, -10.28, 8.4, 6.8, 4.92, 4.34, 4.92, -5.81, -6.26, -5.6, -4.43, -6.32, -7.2, -13.23, -13.23, -13.75, -13.75, -14.05, -14.05, -13.92, -13.77, -12.96, -10.94, -10.53, -11.06, -10.96, -13.5, -13.82, -13.19, -13.44, -13.86, -13.96, -12.88, -12.42, -12.52, -13.41, -9.17, 7.9, 0.0, -7.07, -8.73, -12.09, -13.57, -14.3, -16.09, -15.2, -13.41, -12.07, -10.73, -8.05, 0.0, 8.49, 0.0, -10.18, -11.37, -9.9, -6.0, 0.0, -6.32, -10.41, -11.44, -11.44, -8.79, -7.2, -2.06, 1.75, 2.46, 2.28, 2.28, 1.04, 0.0, 0.0, -0.93, -0.85, -1.65, -1.58, -1.75, 0.0, 0.0, 0.0, 0.0, 0.0, -1.0, -1.67, -2.21, -2.44, -1.77, 0.0, 0.0, 0.0, 0.0, 0.0, -1.28, -10.37, -12.96, -7.6, -5.15, -4.36, -3.79, 0.0, 1.84, 2.98, 3.16, 3.82, 2.4, 0.0, -2.8, -4.43, -4.74, 0.0, -7.6, -13.23, -13.23, -13.75, -13.75, -13.48, -13.75, -13.75, -13.19, -12.23, -11.04, -11.2, -11.3, -10.91, -11.53, -13.8, -14.11, -15.61, -14.42, -14.28, -14.56, -16.27, -16.54, -15.65, 0.0, 8.22, 0.0, -10.28, -9.75, -10.79, -13.75, -13.41, -12.58, 8.22, 11.62, -8.22, -11.62, -10.0, 8.8, 7.15, 7.37, -3.4, -8.63, -8.56, -3.6, 7.2, 5.06, -7.37, -7.6, -8.05, -7.94, -8.49, -3.8, 0.0, 1.47, 1.47, 0.0, 0.0, -2.04, -2.7, -2.57, -2.57, -3.4, -4.0, -2.28, 0.0, 0.0, 0.85, 0.0, -1.67, -3.45, -4.2, -3.69, -3.42, -1.84, -0.89, -1.76, -2.47, -2.97, -2.7, -3.21, -6.7, -12.27, -11.62, -7.68, -3.99, -1.49, 0.0, 0.0, 0.0, 0.0, 0.0, 1.41, 1.55, 0.0, -1.52, 0.0, 7.6, 5.06, -13.23, -13.23, -13.33, -13.48, -13.48, -13.48, -13.75, -13.19, -12.39, -11.6, -11.3, -11.69, -11.54, -10.12, -8.97, -9.42, -10.01, -11.44, -11.77, -11.38, -10.43, -10.3, -11.62, 10.4, 5.06, -0.0, -0.0, 2.53, 4.66, 6.71, -0.0, 6.36, 6.14, 5.26, 10.28, 10.28, 7.27, 7.2, 8.05, 8.49, -0.0, -8.05, -7.54, -5.37, 0.0, 0.0, -6.4, -6.4, -6.8, -7.2, -7.45, -8.05, -3.6, -2.54, -2.69, -3.8, -2.83, -3.3, -5.21, -5.76, -4.96, -5.2, -6.64, -4.0, 0.0, 2.21, 2.44, 0.0, -3.45, -4.83, -4.96, -4.6, -3.67, -2.95, -2.95, -2.94, -3.67, -4.4, -4.92, -5.57, -5.0, -5.9, -8.8, -8.4, -5.31, -2.69, -1.47, -1.5, -0.71, -0.79, -0.76, 0.0, 0.0, 0.0, -1.1, 0.0, 6.36, 7.15, -13.23, -13.23, -13.23, -13.48, -13.48, -13.48, -13.35, -12.94, -12.47, -11.69, -11.69, -11.75, -11.79, -10.81, -9.39, -7.97, -6.64, -4.99, -5.57, -5.6, -4.87, -3.88, -2.54, 2.6, 1.84, 1.35, 1.23, 2.0, 3.48, 3.14, 3.93, 5.21, 5.6, 4.84, 5.81, 6.71, 6.71, 7.6, 7.6, 7.2, -0.0, -6.4, -7.15, -5.75, -4.46, -4.92, -6.23, -7.6, -7.6, -7.63, -6.94, -7.52, -8.49, -8.49, -9.39, -8.67, -6.32, -3.6, -5.69, -6.91, -7.28, -8.0, -8.67, -8.94, 0.0, 1.49, 2.64, 2.26, -2.4, -6.8, -5.59, -4.75, -3.91, -3.6, -3.7, -4.54, -5.64, -5.95, -6.7, -6.15, -4.5, -3.99, -7.27, -10.0, -6.44, -4.21, -4.36, -3.82, -2.44, -1.67, -1.45, -1.47, -0.73, 0.0, -0.95, 0.0, 3.0, 5.58, -13.23, -13.23, -12.94, -13.07, -13.48, -13.48, -13.19, -12.64, -12.64, -12.08, -12.08, -12.13, -12.16, -11.87, -10.65, -9.94, -7.36, -6.6, -5.67, -5.29, -4.26, -4.48, -4.81, -5.95, 1.95, 1.6, 1.35, 1.76, 2.88, 3.64, 2.53, 3.79, 5.06, 5.6, 6.71, 6.71, 6.71, 7.6, 7.6, 7.6, -6.8, -6.45, -9.83, -10.91, -7.74, -6.07, -5.81, -8.82, -9.97, -9.97, -9.32, -8.94, -10.73, -11.62, -10.28, -7.2, -4.74, -4.74, -7.15, -5.6, -8.94, -9.39, -8.94, -8.49, -6.79, -4.74, 2.8, 6.14, 7.6, -0.0, -4.74, -0.0, -0.0, -0.0, -5.37, -4.6, -6.14, -5.44, -6.11, -5.82, -5.69, -5.82, -7.65, -8.01, -9.33, -8.03, -6.2, -6.42, -4.22, -2.35, -2.26, -2.35, -2.29, -1.72, -1.52, -0.95, 0.0, 1.63, -13.23, -13.23, -12.94, -13.07, -13.07, -13.19, -13.19, -13.19, -12.64, -12.33, -12.13, -12.13, -12.16, -12.16, -12.16, -11.25, -9.52, -8.29, -7.45, -6.28, -6.0, -5.27, -6.1, -6.87, -12.07, -0.0, -0.0, 0.63, 1.94, 2.66, 2.73, 2.41, 4.43, 7.15, 7.15, 5.37, 0.0, 0.0, 0.0, 0.0, -7.15, -7.6, -11.09, -10.66, -7.15, -5.37, 0.0, 0.0, -6.71, -9.64, -10.73, -10.28, -0.0, 6.8, 7.15, 7.2, 0.0, 0.0, -0.0, 3.2, 5.69, -8.05, -7.6, -7.6, -7.6, -7.15, 0.0, 6.71, 5.94, 6.4, 6.51, 6.4, 5.58, 3.49, 3.47, -0.0, -8.05, -7.63, -6.08, -5.69, -5.93, -4.87, -4.98, -3.61, -4.4, -8.23, -7.59, -7.27, -4.22, -2.4, -2.67, -3.69, -3.55, -2.8, -2.35, -1.1, 0.0, 0.0, -12.94, -12.94, -12.94, -13.07, -13.07, -12.79, -12.79, -13.19, -12.72, -12.33, -12.33, -12.51, -12.16, -12.16, -12.16, -11.7, -10.54, -9.39, -8.29, -7.71, -7.16, -6.4, -6.79, -7.03, -8.3, -12.07, -0.0, -0.0, 2.16, 2.73, 2.58, 2.53, 2.6, 6.4, 7.15, 4.74, 3.4, 0.0, 0.0, 0.0, -6.71, -6.51, -7.01, -6.71, -6.71, 0.0, 7.6, 7.15, 6.0, 6.71, 0.0, 7.15, 7.15, 6.71, 6.26, 6.26, 6.71, 7.15, -0.0, 6.01, 8.05, 8.05, 0.0, -5.06, -6.4, -5.06, 0.0, 3.6, 4.22, 6.0, 6.88, 6.98, 5.94, 5.06, 3.4, 1.95, -0.0, -4.0, -8.0, -8.49, -8.48, -6.44, -4.19, -2.99, -3.17, -0.96, 0.0, 0.0, 0.0, -1.52, -2.09, -5.09, -4.36, -2.9, -3.09, -3.11, -2.6, -2.6, -12.94, -12.94, -12.94, -12.66, -12.79, -12.79, -12.79, -13.19, -12.9, -12.72, -12.72, -12.16, -12.16, -12.16, -11.82, -11.76, -10.68, -9.58, -8.76, -8.26, -7.16, -6.95, -6.48, -6.21, -5.99, -4.75, -2.82, 0.0, 0.0, 7.6, 5.59, 4.84, 3.83, 6.94, 5.81, 6.71, 6.71, 7.15, 0.0, 0.0, 0.0, -5.36, -6.71, -6.71, -8.05, 8.05, 8.05, 7.6, 7.15, 7.15, 7.15, 7.15, 7.15, 7.15, 7.15, 7.6, 8.05, 8.49, 8.94, 9.39, 8.94, 7.6, 6.8, 6.4, 5.06, 3.47, 3.2, 0.0, 6.8, 6.71, 6.4, 5.36, 5.06, 2.4, 2.54, 4.71, 2.28, -0.0, -4.6, -5.21, -6.32, -8.49, -7.2, -4.47, -4.22, -3.22, 0.0, 0.0, -1.3, -3.2, -5.72, -6.18, -6.07, -5.3, -5.1, -4.65, -3.72, -3.72, -12.94, -12.94, -12.94, -12.39, -12.39, -12.79, -12.79, -12.5, -12.9, -12.9, -12.39, -12.39, -12.16, -12.16, -11.49, -10.43, -10.01, -9.23, -8.25, -6.95, -5.93, -5.93, -6.27, -4.93, -3.68, -3.02, -3.53, -2.81, -2.45, 0.0, 8.91, 6.4, 4.4, 3.2, 3.39, 4.98, 4.8, 6.26, 6.26, 6.26, 0.0, 0.0, -7.15, -7.6, -6.01, -0.0, 6.01, 8.05, 8.05, 8.05, 8.05, 8.05, 7.6, 7.6, 0.0, 0.0, 6.01, 6.32, 8.0, 8.0, 8.0, 6.01, 5.69, 6.8, 6.4, 5.94, 2.8, 0.0, 7.6, 7.15, 5.37, -0.0, -0.0, -0.0, 8.4, 8.94, 9.39, 6.95, -0.0, -0.0, -0.0, -0.0, -6.0, -5.75, -5.95, -5.49, -5.37, -2.16, -4.19, -4.75, -5.86, -6.7, -6.25, -6.7, -6.01, -5.06, -4.81, -4.81, -12.94, -12.94, -12.25, -12.39, -12.39, -12.39, -12.5, -12.5, -12.9, -12.9, -12.39, -12.39, -12.39, -11.8, -11.8, -12.29, -10.12, -10.01, -8.31, -5.8, -4.98, -5.81, -6.2, -6.98, -6.21, -6.6, -5.64, -7.58, -7.44, -8.22, 9.2, 7.47, 5.6, 2.79, 3.35, 3.09, 3.16, 3.16, 6.0, 8.05, 7.15, 7.6, 7.6, 5.37, 6.01, -0.0, 6.01, 6.01, 6.01, 8.49, 8.49, 8.05, 8.05, 7.6, 0.0, 0.0, 0.0, 0.0, 6.32, 6.32, 6.32, 6.01, 5.69, 6.0, 6.71, 6.26, 0.0, 0.0, 0.0, 6.32, 9.83, 0.0, 0.0, 5.4, 7.9, 8.55, 5.46, 6.64, 8.94, 6.7, 3.0, 1.98, -4.43, -6.71, -7.74, -7.6, -8.55, -8.82, -8.49, -7.56, -6.44, -7.07, -7.35, -7.67, -6.79, -6.18, -6.21, -6.21, -12.94, -12.94, -12.25, -12.39, -12.39, -12.11, -12.5, -12.5, -12.9, -12.9, -12.39, -12.39, -12.05, -11.8, -11.8, -10.81, -11.15, -10.48, -8.85, -8.21, -7.57, -7.0, -7.69, -10.02, -10.43, -10.43, -11.44, -9.76, -11.16, -11.18, 6.95, 7.6, 5.81, 3.45, 2.79, 2.53, 3.16, 3.79, 4.11, 2.8, 4.74, 6.36, 6.07, 5.64, 5.2, 6.01, 6.01, 6.01, 7.6, 8.05, 8.05, 8.05, 7.6, 8.05, 5.06, 5.69, 0.0, 0.0, 0.0, 0.0, 0.0, 5.69, 8.05, 7.6, 6.26, 6.26, 0.0, 0.0, 0.0, 1.4, 2.7, 2.28, 1.11, 0.0, 0.0, -1.98, -2.19, 0.0, 8.05, 5.06, 3.0, 1.73, -0.0, -4.11, -6.26, -6.0, -5.43, -4.81, -8.94, -6.87, -5.93, -7.44, -8.58, -8.56, -8.3, -8.17, -7.53, -7.53, -12.54, -12.64, -12.25, -12.39, -12.11, -12.11, -12.5, -12.5, -12.9, -12.59, -12.59, -12.39, -12.05, -12.05, -12.07, -11.8, -11.11, -10.47, -9.77, -11.33, -12.01, -9.66, -9.28, -9.95, -10.75, -10.43, -10.77, -12.42, -12.27, -10.73, 5.37, 5.94, 4.4, 2.8, 2.86, 2.84, 2.68, 3.48, 2.98, 4.43, 4.74, 4.74, 5.21, 4.84, 4.8, 5.69, 5.69, 6.01, 7.6, 8.05, 7.6, 7.6, 7.6, 7.6, 8.05, 5.37, 0.0, 0.0, 0.0, 0.0, 0.0, 0.0, 8.05, 7.6, 6.26, 6.26, 4.43, 3.0, 2.82, 3.17, 3.63, 1.84, 0.0, -1.08, -2.72, -5.99, -7.44, 0.0, 9.39, 6.32, 1.73, -0.0, -0.0, -0.0, -0.0, -5.36, -5.36, -5.2, -3.22, -3.9, -6.01, -7.47, -9.45, -7.42, -7.71, -7.89, -7.21, -7.21, -12.54, -12.25, -12.25, -12.39, -12.11, -12.11, -12.11, -12.5, -12.9, -12.59, -12.59, -12.59, -12.05, -12.05, -11.72, -11.44, -11.44, -10.46, -10.43, -11.1, -11.79, -10.47, -9.67, -10.61, -10.61, -10.11, -9.22, -10.82, -11.62, -6.8, 0.0, 4.02, 3.9, 3.6, 4.0, 3.93, 3.48, 2.98, 3.79, 4.11, 4.11, 4.11, 4.46, 4.46, 4.4, 3.79, 6.01, 5.69, 7.2, 7.6, 7.15, 7.6, 7.6, 7.6, 7.6, 0.0, 0.0, -8.49, -8.94, -8.49, 0.0, 0.0, -0.0, 5.37, 7.15, 6.71, 6.26, 4.74, 3.0, 5.69, 4.0, 2.49, 0.0, -0.0, -5.37, -7.9, -9.16, -5.4, 10.6, 8.94, 5.06, -0.0, -0.0, -0.0, -1.52, -4.43, -5.51, -5.7, -5.43, -5.76, -7.18, -7.27, -7.9, -7.45, -5.31, -6.28, -6.94, -6.94, -12.54, -12.54, -12.25, -12.39, -12.11, -12.11, -11.82, -12.21, -12.59, -12.59, -12.97, -12.97, -12.05, -11.72, -11.72, -11.73, -11.09, -10.44, -10.12, -10.09, -10.15, -8.29, -7.36, -8.72, -10.27, -10.31, -9.73, -9.02, -7.9, -8.05, 0.0, 5.81, 4.92, 4.77, 4.4, 4.8, 4.11, 4.11, 4.11, 4.11, 3.79, 4.46, 3.79, 3.93, 3.72, 4.4, 5.69, 6.8, 6.4, 6.4, 7.6, 7.6, 7.6, 7.6, 7.6, 0.0, 0.0, -8.05, -8.94, -7.15, -7.6, 0.0, 0.0, 0.0, 7.15, 6.71, 0.0, 0.0, 0.0, 0.0, 0.0, 0.0, 4.43, 4.43, 0.0, -8.0, -9.58, -7.9, 10.28, 9.39, 6.71, 5.06, -0.0, -0.0, -3.2, -5.36, -6.71, -7.08, -7.58, -8.15, -8.53, -8.73, -8.24, -4.46, -3.82, -5.09, -5.86, -5.86, -12.25, -12.25, -12.25, -12.25, -12.11, -12.11, -11.82, -12.21, -12.59, -12.59, -12.97, -12.97, -12.65, -11.72, -12.07, -11.73, -11.4, -10.76, -10.12, -10.09, -9.23, -7.93, -6.4, -6.9, -8.45, -9.97, -9.97, -10.12, -8.53, -6.95, -6.64, 0.0, 7.15, 5.94, 5.21, 5.21, 5.58, 5.58, 4.43, 4.43, 4.11, 4.46, 3.93, 3.48, 3.16, 3.16, 5.37, 5.37, 7.21, 7.63, 8.49, 8.05, 7.6, 7.6, 7.6, 5.06, 2.8, 0.0, -8.05, -7.15, -5.81, -7.15, 0.0, 0.0, 6.26, 5.36, 0.0, 0.0, 0.0, -2.4, -1.73, 2.6, 2.12, -0.0, -0.0, -0.0, -7.6, 0.0, 8.94, 7.6, 6.71, 6.07, 4.74, -0.0, -3.4, -5.72, -7.06, -7.6, -7.94, -6.71, -7.96, -6.64, -4.84, -3.16, -2.84, -4.22, -5.34, -5.34, -12.25, -12.25, -12.25, -12.25, -11.56, -11.72, -11.82, -12.21, -12.21, -12.59, -12.97, -12.97, -12.65, -12.07, -12.07, -11.73, -11.06, -11.06, -10.12, -10.09, -9.66, -8.58, -7.39, -6.95, -6.9, -8.45, -9.67, -10.3, -9.5, -7.9, -7.27, 0.0, 0.0, 7.6, 6.4, 6.79, 7.21, 6.8, 6.4, 4.43, 4.11, 4.46, 2.95, 3.07, 2.73, 2.73, 2.6, 3.45, 5.06, 5.72, 6.0, 7.6, 7.6, 7.6, 7.6, 7.15, 4.74, 2.6, 0.0, -6.71, -5.81, -3.48, -0.0, 0.0, 5.36, 7.15, 0.0, 0.0, -5.69, -1.73, 0.0, 0.0, -0.0, -0.0, -0.0, -0.0, -0.0, 0.0, 0.0, 7.15, 6.71, 6.26, 6.26, 5.58, -0.0, -3.97, -6.4, -6.94, -5.95, -3.76, -4.43, -7.6, -5.2, -3.79, -3.07, -4.11, -4.6, -4.6, -12.25, -12.25, -11.85, -11.85, -11.56, -11.72, -12.11, -12.21, -12.59, -12.59, -12.59, -12.97, -12.65, -13.02, -12.43, -11.73, -11.06, -11.06, -10.43, -10.4, -10.35, -9.61, -8.58, -7.88, -6.95, -7.69, -8.87, -9.97, -9.42, -8.93, -6.71, -5.95, 0.0, 0.0, 8.05, 7.2, 7.2, 7.2, 6.8, 6.4, 5.6, 4.11, 2.98, 3.22, 2.76, 2.76, 2.99, 3.45, 5.06, 5.06, 5.59, 5.37, 7.21, 7.6, 7.6, 7.6, 7.15, 4.74, 3.0, 0.0, 0.0, -5.06, -3.79, 0.0, 5.81, 8.49, 0.0, 0.0, -6.4, -3.97, -3.4, -6.64, -5.37, -1.73, -1.73, -0.0, -0.0, 0.0, 0.0, 0.0, 7.15, 6.26, 5.64, 6.26, 4.74, -0.0, -1.84, -4.22, -3.2, -3.91, -4.89, -6.26, -6.0, -5.15, -5.06, -5.24, -4.19, -4.19, -11.85, -11.85, -11.85, -11.85, -11.56, -11.94, -12.11, -12.21, -12.27, -12.27, -12.59, -12.65, -12.65, -13.02, -12.68, -11.73, -11.39, -11.06, -10.43, -10.75, -10.35, -10.02, -9.02, -8.33, -7.88, -8.01, -8.72, -9.48, -10.01, -8.82, -7.15, -6.58, -6.14, -4.2, -4.0, 0.0, 0.0, 0.0, 8.49, 7.6, 5.06, -0.0, -0.0, 1.7, 2.6, 2.99, 2.99, 3.76, 4.74, 4.74, 5.24, 4.89, 4.98, 4.57, 6.07, 6.71, 7.6, 6.71, 4.43, 3.72, 0.0, -7.6, 0.0, 0.0, 0.0, 0.0, 0.0, -3.4, -5.37, -5.06, -4.56, -3.6, -3.8, -8.05, -0.0, 1.49, 1.32, -0.0, -7.15, 0.0, 7.15, 5.81, 3.79, 5.51, 6.26, -0.0, -1.84, -3.4, -5.06, -4.74, -4.43, -5.81, -5.94, -6.99, -6.82, -5.82, -5.58, -5.58, -11.85, -11.85, -11.85, -11.85, -11.56, -11.94, -12.11, -12.21, -12.59, -12.27, -12.27, -12.65, -12.65, -13.02, -12.68, -12.08, -11.39, -11.06, -11.4, -11.06, -10.72, -10.06, -9.33, -8.58, -7.88, -8.43, -9.11, -10.12, -10.37, -9.82, -7.9, -6.69, -6.01, -5.59, -4.96, -4.0, 0.0, 0.0, 0.0, 0.0, 0.0, 0.0, 0.0, 0.0, -0.0, 1.98, 4.02, 4.74, 4.74, 4.43, 4.89, 4.54, 4.19, 4.09, 4.4, 6.07, 7.6, 7.15, 4.43, 2.12, 2.26, 0.0, 0.0, -0.0, 0.0, 0.0, -3.8, 0.0, 0.0, -2.4, -3.6, -2.99, -3.15, 0.0, 6.8, 2.95, 2.6, -0.0, -4.74, -6.71, -0.0, -0.0, 0.0, 3.16, 4.4, 5.36, -0.0, -3.97, -3.97, -3.2, -0.0, -4.74, -6.26, -6.98, -7.35, -7.03, -6.44, -6.44, -11.85, -11.85, -11.85, -11.85, -11.56, -11.94, -11.94, -12.21, -12.59, -12.27, -12.27, -12.65, -12.65, -13.02, -12.68, -12.68, -11.73, -11.06, -11.4, -11.06, -11.06, -10.06, -9.73, -9.06, -8.33, -8.64, -8.85, -10.12, -10.09, -9.82, -7.9, -6.69, -6.11, -5.72, -5.59, -4.96, -4.0, -4.0, 0.0, 0.0, 0.0, 0.0, 5.81, 6.71, 0.0, -0.0, 3.22, 4.89, 5.37, 5.24, 4.89, 4.19, 3.48, 3.78, 4.09, 3.83, 6.36, 7.15, 4.43, 3.72, 3.0, 7.6, 5.06, -0.0, 0.0, -6.32, -4.0, -3.6, -3.4, -2.54, -3.6, -2.54, -3.35, -3.32, 0.0, 6.32, 2.8, -0.0, -4.74, -5.81, -4.11, -0.0, 4.43, 4.92, 4.0, 4.24, 5.36, 2.8, -0.0, 6.71, 6.71, -0.0, -5.37, -6.71, -7.89, -8.14, -7.76, -7.76, -11.85, -11.85, -11.85, -11.85, -11.56, -11.94, -11.94, -12.21, -12.59, -12.27, -12.27, -12.27, -12.65, -13.02, -12.68, -12.68, -12.08, -11.73, -11.4, -11.07, -11.06, -10.42, -10.06, -9.73, -9.06, -8.38, -8.58, -9.67, -10.02, -9.82, -7.9, -7.27, -6.95, -6.11, -6.01, -5.86, -4.2, -2.97, -4.0, 0.0, 0.0, 7.15, 5.81, 4.8, 3.48, 0.0, 6.8, 3.45, 3.45, 3.45, 3.83, 3.49, 3.84, 3.48, 3.48, 3.48, 4.22, 4.41, 6.26, 6.26, 6.0, 3.4, 5.37, -0.0, 0.0, 0.0, -5.69, -8.49, -5.6, -5.37, -4.83, -3.91, -2.54, -3.52, -3.82, 0.0, 6.95, 3.97, -1.7, -5.94, -4.92, 0.0, 6.71, 4.11, 4.02, 3.9, 3.6, 3.16, 3.16, 4.47, 4.66, 5.81, -4.6, -7.1, -8.05, -8.36, -8.63, -8.63, -11.85, -11.85, -11.85, -11.85, -11.56, -11.94, -11.94, -12.01, -12.59, -12.27, -12.27, -12.27, -12.65, -13.02, -12.68, -12.68, -12.08, -11.73, -11.09, -11.09, -10.75, -10.4, -10.06, -10.06, -9.33, -9.06, -9.02, -9.36, -9.69, -9.16, -8.22, -7.27, -7.59, -6.95, -6.64, -6.01, -4.83, -4.2, -5.21, -4.0, 0.0, 0.0, 6.26, 5.36, 5.36, 7.6, 6.4, 4.0, 3.2, 3.45, 3.45, 3.49, 3.49, 3.48, 3.15, 3.15, 3.78, 4.46, 4.8, 5.01, 3.72, 2.4, -0.0, 0.0, 0.0, 0.0, 0.0, -7.6, -6.26, -5.21, -4.98, -4.65, -2.49, -2.69, -5.7, -7.9, 9.2, 8.0, 2.12, -3.22, -6.51, -4.92, 0.0, 3.79, 3.79, 2.73, 2.84, 2.84, 1.98, 3.2, 3.58, 3.16, -5.64, -6.28, -8.05, -8.94, -8.9, -8.9, -11.85, -11.85, -11.85, -11.85, -11.56, -11.94, -11.94, -12.01, -12.59, -12.27, -12.27, -12.27, -12.27, -12.65, -12.68, -12.68, -12.08, -11.77, -11.77, -11.09, -10.75, -10.4, -10.7, -10.35, -10.06, -9.06, -9.3, -9.48, -9.02, -8.41, -9.08, -8.53, -7.9, -7.27, -6.4, -6.95, -5.46, -5.06, -4.2, -4.96, -3.8, 0.0, 6.71, 5.81, 5.94, 5.06, 3.72, 5.21, 5.01, 5.01, 4.98, 4.19, 3.84, 2.84, 3.16, 3.15, 3.43, 3.43, 3.43, 3.63, 3.72, -0.0, 0.0, 0.0, 0.0, 0.0, 0.0, 0.0, -5.06, -6.0, -4.84, -5.06, -4.0, 0.0, -5.95, -11.18, 2.97, 5.06, 4.11, -0.0, -6.7, -8.91, -9.39, -0.0, -0.0, 2.4, 3.47, 2.84, 3.48, 3.35, 4.02, 3.39, 0.0, -6.02, -7.92, -8.46, -8.49, -8.49, -11.85, -11.85, -11.85, -11.85, -11.56, -11.94, -11.94, -12.01, -12.39, -12.27, -12.27, -12.27, -12.27, -12.27, -12.68, -12.68, -12.35, -12.08, -11.77, -11.09, -11.06, -11.06, -10.7, -10.4, -10.06, -9.38, -9.42, -9.1, -8.93, -9.53, -9.17, -8.75, -7.59, -7.59, -7.27, -6.11, -6.3, -5.46, -4.83, -5.63, -4.96, -3.6, 0.0, 6.71, 2.8, 5.06, 5.69, 6.32, 5.72, 5.72, 5.36, 4.43, 3.79, 3.48, 3.16, 2.48, 2.48, 2.73, 2.98, 2.53, 1.55, -0.0, 0.0, 0.0, 0.0, 0.0, 0.0, 2.26, 0.0, 0.0, 0.0, -3.8, -2.54, -3.8, -7.59, -0.0, 2.39, 4.22, 5.37, 3.2, -3.8, -9.75, -10.73, -9.83, -5.69, -0.0, 3.2, 3.2, 4.8, 3.72, 4.34, 3.58, 3.2, -5.51, -6.4, -7.85, -7.92, -7.92, -11.46, -11.46, -11.85, -11.85, -11.56, -11.94, -11.94, -12.01, -12.01, -12.27, -12.27, -12.27, -12.27, -12.27, -12.32, -12.68, -12.68, -11.73, -11.44, -11.41, -11.41, -11.06, -10.7, -10.01, -10.4, -9.38, -9.42, -9.48, -9.89, -10.12, -10.04, -8.58, -8.07, -7.59, -7.59, -7.27, -6.11, -6.01, -5.21, -4.83, -5.36, -4.46, -3.4, 0.0, 0.0, 4.74, 5.37, 6.32, 5.69, 6.44, 6.08, 4.74, 4.43, 4.11, 3.35, 2.79, 2.51, 2.79, 2.3, 2.68, 5.37, 0.0, 0.0, 0.0, 0.0, 0.0, 5.06, 3.0, 3.4, 3.6, 0.0, 0.0, -4.71, -5.03, -7.59, -0.0, 3.53, 7.59, 0.0, 0.0, -10.28, -10.28, -10.28, -10.28, -10.28, -7.6, 0.0, 4.47, 4.92, 4.24, 3.9, 4.02, 3.13, 0.0, -6.0, -7.06, -7.71, -7.71, -11.46, -11.46, -11.85, -11.85, -11.56, -11.56, -11.94, -12.01, -12.01, -12.27, -12.27, -12.27, -11.96, -11.96, -12.32, -12.68, -12.32, -12.07, -11.44, -11.77, -11.41, -11.06, -10.7, -10.3, -10.4, -10.09, -9.76, -9.8, -9.89, -10.12, -9.66, -8.15, -7.59, -7.59, -7.59, -7.27, -6.4, -6.95, -6.01, -5.59, -6.32, -5.69, -5.37, -5.06, 0.0, 0.0, 5.06, 5.37, 6.32, 5.69, 5.37, 5.72, 5.06, 4.43, 3.63, 3.35, 3.07, 2.79, 2.51, 3.16, 4.0, 7.6, 0.0, 0.0, 0.0, 8.05, 5.06, 5.06, 3.4, 3.4, 0.0, -6.01, -4.96, -4.96, -5.52, 0.0, 12.07, 0.0, 0.0, -12.52, -11.18, -10.28, -8.94, -8.49, -8.05, -6.26, 0.0, 0.0, 4.92, 4.92, 4.34, 4.38, 4.02, 3.39, -4.92, -6.94, -7.98, -7.98, -11.3, -11.3, -11.69, -11.85, -11.56, -11.56, -11.94, -11.63, -12.01, -11.9, -12.27, -12.27, -11.96, -11.96, -11.96, -12.32, -12.32, -12.07, -11.44, -11.77, -11.41, -11.06, -11.06, -10.3, -10.3, -9.71, -9.76, -10.12, -9.89, -9.64, -9.08, -7.9, -7.59, -7.59, -7.59, -7.27, -6.95, -6.95, -6.95, -6.64, -5.59, -5.69, -5.37, -5.06, -6.4, 0.0, 0.0, 5.37, 6.32, 6.32, 5.37, 5.06, 4.02, 4.43, 4.11, 3.35, 3.07, 2.79, 2.51, 3.16, 3.16, 4.92, 8.05, 7.15, 8.05, 0.0, 0.0, 0.0, 3.6, 0.0, 0.0, 0.0, -2.97, -2.58, -2.6, -3.39, 0.0, 0.0, -8.85, -12.52, -11.18, -8.49, -6.26, -4.92, -4.92, -4.92, -3.48, 0.0, 4.47, 4.92, 4.92, 4.34, 3.9, 3.58, 2.84, -4.98, -8.14, -8.14, -11.3, -11.3, -11.69, -11.69, -11.37, -11.37, -11.94, -11.63, -12.01, -11.69, -11.9, -12.27, -12.27, -11.96, -11.96, -12.32, -12.32, -12.07, -11.8, -11.77, -11.77, -11.41, -11.06, -10.3, -10.01, -10.01, -9.76, -10.12, -9.89, -10.03, -9.02, -8.75, -7.9, -7.36, -7.06, -6.77, -6.95, -6.95, -6.64, -6.64, -6.32, -5.69, -5.06, -6.01, -4.74, -6.4, 0.0, 0.0, 6.8, 5.37, 5.95, 4.74, 4.74, 3.76, 4.11, 3.79, 3.48, 2.79, 3.16, 3.58, 3.72, 4.92, 8.05, 7.15, 8.05, 0.0, 0.0, 0.0, 0.0, 0.0, 0.0, 0.0, 0.0, 0.0, -2.82, -4.05, -4.83, -5.21, -11.62, -8.22, -7.27, -7.6, -5.36, -4.02, -4.47, -4.47, -3.48, 0.0, 0.0, 4.92, 4.92, 4.34, 4.34, 4.02, 4.02, -4.0, -4.84, -7.03, -11.6, -11.6, -11.3, -11.69, -11.69, -11.37, -11.94, -11.63, -12.01, -12.01, -11.9, -11.9, -11.9, -11.6, -11.96, -12.32, -12.32, -12.32, -12.07, -12.14, -11.77, -11.41, -11.06, -11.06, -10.3, -10.37, -9.76, -9.8, -10.22, -10.03, -9.77, -8.69, -7.9, -7.9, -7.36, -7.06, -6.48, -6.95, -6.64, -6.64, -6.87, -6.52, -5.59, -6.7, -5.95, -6.32, -6.8, 0.0, 5.37, 5.06, 5.06, 3.72, 3.47, 4.43, 4.11, 3.79, 3.48, 3.16, 3.49, 3.83, 4.0, 4.92, 8.05, 7.15, 7.6, 0.0, 8.49, 5.37, 0.0, 0.0, 0.0, 0.0, 0.0, -1.75, -3.39, -6.42, -6.98, -7.51, -12.52, -5.6, -5.21, -6.8, -6.71, -4.4, -3.48, -4.92, -5.36, -5.36, 0.0, 0.0, 4.92, 4.24, 4.0, 3.82, 2.84, -0.0, -3.79, -4.84, -11.6, -11.6, -11.3, -11.69, -11.69, -11.37, -11.37, -11.63, -12.01, -12.01, -11.9, -11.9, -11.9, -11.6, -11.96, -11.96, -12.32, -12.32, -12.07, -11.8, -11.77, -11.77, -11.06, -10.75, -10.37, -10.07, -10.12, -9.48, -9.89, -10.38, -9.64, -8.97, -8.22, -7.72, -7.42, -7.13, -6.83, -6.48, -6.64, -7.13, -6.79, -6.91, -5.84, -5.36, -7.07, -7.2, -7.2, -7.6, 0.0, 5.06, 3.0, 4.74, 3.47, 4.43, 4.11, 4.29, 3.93, 3.49, 3.49, 4.0, 4.15, 4.92, 5.36, 0.0, 0.0, 8.05, 7.6, 5.37, 0.0, 0.0, 0.0, -2.4, -3.8, -2.83, -2.97, -6.95, -7.89, -7.06, -8.91, -9.2, -4.74, -4.4, -5.6, -4.11, -3.79, -5.81, -6.26, -6.26, -5.81, 0.0, 0.0, 4.4, 3.72, 2.53, 2.84, -0.0, -2.4, -3.79, -11.6, -11.6, -11.3, -11.3, -11.69, -11.37, -11.37, -11.94, -11.63, -12.01, -11.69, -11.9, -11.9, -11.9, -11.96, -11.96, -12.32, -12.32, -12.07, -11.8, -11.8, -11.44, -11.06, -11.06, -10.75, -10.07, -10.12, -10.52, -9.9, -10.03, -10.03, -9.3, -8.97, -7.78, -7.48, -6.7, -6.83, -6.83, -6.95, -6.64, -7.13, -6.45, -6.55, -5.49, -6.52, -9.11, -7.15, -5.81, -6.26, -0.0, 4.74, 2.8, 4.43, 3.47, 4.11, 3.79, 4.29, 3.83, 4.09, 4.09, 4.24, 4.38, 7.6, 7.6, 8.05, 8.05, 7.6, 6.01, 0.0, 0.0, -3.6, -5.37, -3.8, -3.8, 0.0, -5.37, -7.89, -6.61, -6.14, -4.92, -4.47, -4.92, -4.92, -7.15, -5.37, -5.69, -5.37, -5.06, -5.06, -4.74, 0.0, 0.0, 2.0, 1.6, -0.0, -3.16, -3.79, -3.79, -11.6, -11.6, -11.3, -11.3, -11.3, -11.37, -11.37, -11.94, -11.63, -11.63, -11.32, -11.9, -11.9, -11.9, -11.6, -11.96, -11.96, -12.32, -11.96, -12.07, -11.8, -11.44, -11.44, -10.75, -10.75, -10.07, -9.8, -9.85, -9.9, -10.37, -10.03, -9.3, -8.53, -8.53, -7.36, -7.08, -7.18, -7.27, -6.83, -6.95, -7.06, -6.79, -6.11, -6.11, -6.32, -6.01, -7.15, -5.51, -4.92, 0.0, -0.0, 2.6, 2.6, 4.11, 3.79, 3.79, 3.93, 4.22, 4.09, 4.09, 4.4, 4.85, 4.92, 8.05, 8.05, 0.0, 0.0, 0.0, 0.0, 0.0, -3.6, -5.37, -4.0, -4.22, -3.8, -5.06, -6.26, -8.33, -8.05, -7.15, -6.71, -5.06, -2.83, -2.49, -2.28, -2.06, -1.63, -1.98, -1.98, -4.74, -5.06, -7.6, -0.0, -0.0, -4.47, -4.92, -4.92, -4.92, -11.6, -11.6, -11.3, -11.3, -11.3, -11.37, -11.37, -11.56, -11.63, -11.63, -11.32, -11.53, -11.9, -11.9, -11.6, -11.96, -11.96, -11.96, -11.96, -12.32, -12.07, -11.44, -11.44, -10.75, -10.43, -10.46, -10.15, -9.85, -9.9, -9.62, -9.69, -9.34, -8.93, -8.12, -7.82, -7.52, -7.52, -7.18, -7.27, -6.95, -7.06, -6.73, -6.45, -6.11, -6.01, -5.1, -6.8, -6.71, -6.26, -5.81, -0.0, -0.0, 2.4, 2.4, 3.79, 4.09, 4.4, 4.22, 4.46, 4.46, 4.8, 4.66, 4.92, 7.6, 7.6, 0.0, 0.0, 0.0, 0.0, -3.4, -3.4, -3.6, -4.46, -5.1, -3.6, -1.95, 0.0, -6.32, -9.6, -11.62, -11.2, -3.36, -2.72, -2.06, -1.76, -1.4, -1.18, -1.32, -2.32, -2.8, -1.98, -4.43, -5.81, -4.47, -4.47, -4.92, -4.92, -4.92, -11.2, -11.2, -11.3, -11.3, -11.3, -11.3, -11.37, -11.56, -11.26, -11.63, -11.63, -11.53, -11.9, -11.9, -11.9, -11.96, -11.96, -11.96, -11.96, -11.96, -12.07, -11.44, -11.44, -11.11, -11.11, -10.78, -10.15, -9.85, -10.28, -9.92, -10.01, -9.27, -8.93, -8.53, -8.53, -7.85, -7.15, -7.22, -7.18, -7.27, -7.35, -7.06, -7.15, -6.45, -6.11, -6.01, -6.01, -7.63, -7.15, -7.15, 0.0, -0.0, -0.0, 3.79, 3.79, 4.46, 4.8, 4.6, 4.46, 4.46, 5.2, 4.98, 5.2, 4.92, 5.69, 0.0, 0.0, 0.0, 0.0, 0.0, 0.0, 0.0, -2.54, -3.8, -1.67, 0.0, 1.75, 0.0, 0.0, 0.0, 3.58, 2.57, 0.0, -2.2, -3.53, -3.11, -2.83, -2.12, -1.1, 0.0, 0.0, -5.36, -5.36, -4.92, -4.24, -4.66, -4.66, -4.66, -11.2, -11.2, -10.91, -11.3, -11.3, -11.3, -11.37, -11.56, -11.26, -11.63, -11.63, -11.53, -11.9, -11.9, -11.9, -12.17, -11.96, -11.96, -11.96, -11.96, -11.72, -11.39, -11.44, -11.44, -10.78, -10.78, -10.48, -10.18, -10.19, -9.92, -10.29, -9.62, -9.27, -8.9, -8.16, -7.85, -7.55, -7.22, -7.59, -7.27, -7.35, -7.06, -6.73, -6.39, -6.45, -6.45, -6.63, -6.79, -7.2, -7.6, -7.15, 0.0, -0.0, 4.43, 3.79, 5.09, 4.46, 4.65, 4.54, 4.54, 4.54, 5.4, 5.64, 5.36, 3.79, 0.0, 0.0, 0.0, 3.4, 0.0, 5.37, 5.37, 0.0, 0.0, 0.0, 0.0, 1.75, 0.0, 1.62, 4.6, 5.54, 5.02, 0.0, -4.98, -7.24, -4.8, -2.39, 0.0, 0.0, 8.94, 0.0, -4.02, -4.24, -4.34, -4.77, -4.4, -4.4, -4.4, -11.2, -11.2, -10.91, -11.3, -11.3, -11.3, -10.99, -11.56, -11.26, -11.63, -11.63, -11.53, -11.53, -11.9, -12.09, -11.81, -11.81, -11.6, -11.6, -11.6, -11.96, -11.72, -11.1, -11.44, -11.44, -10.78, -10.81, -10.52, -10.55, -10.55, -9.92, -9.92, -9.62, -8.9, -8.53, -8.22, -7.85, -7.9, -7.59, -7.27, -7.35, -7.02, -6.73, -6.73, -6.01, -6.45, -6.52, -6.63, -7.07, -7.2, -7.6, -7.15, 0.0, 0.0, 4.11, 5.2, 5.51, 4.84, 4.43, 4.89, 4.89, 5.37, 5.64, 5.81, 4.46, 0.0, 0.0, 0.0, 0.0, 5.37, 8.05, 8.05, 0.0, 0.0, 0.0, 0.0, 0.0, 0.0, 2.97, 4.2, 3.87, 3.82, 0.0, -7.93, -12.96, 0.0, 8.94, 7.6, 6.26, 2.0, 0.0, -4.02, -4.0, -4.34, -4.4, -4.4, -4.4, -4.4, -11.2, -11.2, -10.91, -10.91, -11.3, -11.3, -10.99, -11.56, -11.56, -11.26, -11.63, -11.82, -11.53, -11.9, -12.09, -12.09, -11.81, -11.81, -11.6, -11.6, -11.96, -11.72, -11.44, -11.44, -11.44, -11.15, -10.81, -10.82, -10.81, -10.91, -10.55, -9.92, -9.92, -8.9, -8.53, -8.22, -8.22, -7.55, -7.9, -7.59, -7.64, -7.35, -7.41, -6.73, -6.73, -6.45, -6.91, -6.52, -6.63, -6.44, -6.7, -6.8, 0.0, 0.0, 6.26, 5.81, 5.81, 5.51, 5.01, 4.43, 4.89, 5.01, 6.07, 5.81, 5.2, 5.69, 0.0, 0.0, 0.0, 0.0, 3.8, 7.6, 8.49, 0.0, 0.0, 0.0, 0.0, 0.0, 4.0, 3.32, 1.54, 2.82, 2.13, 0.0, -0.0, 6.7, 6.52, 5.64, 2.2, 1.55, -0.0, 0.0, -4.02, -4.24, -4.77, -4.57, -4.57, -4.57, -11.2, -11.2, -10.91, -10.91, -10.91, -11.3, -10.99, -11.56, -11.56, -11.26, -11.63, -11.82, -11.53, -11.9, -12.09, -12.09, -12.09, -11.81, -11.6, -11.6, -11.6, -11.72, -11.45, -11.1, -11.45, -11.45, -11.17, -10.82, -11.18, -10.55, -10.55, -10.28, -9.92, -9.21, -8.9, -8.22, -8.22, -7.9, -7.9, -7.94, -7.59, -7.64, -7.35, -7.41, -6.73, -6.79, -6.45, -6.52, -6.52, -6.28, -6.44, -7.21, -7.6, 0.0, 6.71, 6.26, 5.81, 5.6, 5.21, 4.43, 4.74, 5.36, 5.6, 5.81, 5.36, 7.15, 5.37, 0.0, 0.0, 0.0, 0.0, 0.0, 8.49, 8.49, 0.0, 0.0, 0.0, 0.0, 2.69, 2.06, 0.0, 1.75, 3.65, 0.0, -0.0, 7.59, 5.81, 5.36, 0.0, -0.0, -0.0, -0.0, -4.02, -4.02, -4.34, -4.77, -4.77, -4.77, -11.2, -10.8, -11.2, -10.91, -10.91, -11.3, -10.99, -11.17, -11.56, -11.26, -11.63, -11.82, -11.9, -12.09, -11.72, -11.72, -11.72, -11.44, -11.44, -11.6, -11.6, -11.72, -11.72, -11.45, -11.45, -11.45, -11.44, -11.17, -11.18, -10.81, -10.55, -10.55, -10.28, -9.56, -9.21, -8.22, -7.9, -7.9, -7.9, -7.59, -7.94, -7.64, -8.03, -7.35, -7.06, -7.15, -6.79, -6.91, -6.18, -6.7, -6.9, -6.32, -6.8, 0.0, 0.0, 0.0, 5.81, 6.26, 4.43, 4.43, 4.74, 4.74, 5.01, 5.2, 5.36, 6.71, 5.06, 0.0, 0.0, -5.37, -5.69, -6.01, 0.0, 8.94, 6.01, 0.0, 0.0, 0.0, 0.0, 0.0, 0.0, 2.06, 3.8, 3.8, -0.0, 8.48, 4.82, 5.36, 0.0, -4.0, -4.02, -0.0, -0.0, -4.02, -4.47, -4.47, -4.47, -4.47, -10.8, -10.65, -10.8, -10.91, -10.91, -10.91, -10.99, -11.17, -11.56, -11.26, -11.82, -11.82, -12.21, -12.09, -11.72, -11.34, -11.34, -11.72, -11.81, -11.81, -11.6, -11.6, -11.72, -11.72, -11.72, -11.8, -11.44, -11.44, -11.18, -10.81, -10.55, -10.55, -10.19, -9.56, -9.2, -8.87, -8.22, -8.24, -7.91, -7.59, -7.94, -7.96, -7.64, -7.68, -7.41, -7.15, -7.15, -6.91, -6.91, -6.7, -6.28, -6.44, -5.37, 0.0, 0.0, 0.0, 0.0, 6.26, 4.43, 4.43, 4.02, 4.74, 4.74, 5.6, 5.64, 4.92, 6.0, 4.74, 0.0, 0.0, 0.0, -7.15, 0.0, 0.0, 6.64, 6.32, 0.0, 0.0, 0.0, 0.0, 0.0, 0.0, 2.54, 3.6, 8.85, 9.2, 5.73, 4.92, 0.0, -3.79, -4.66, -4.92, -3.16, -4.02, -4.47, -4.92, -4.92, -4.92, -10.65, -10.65, -10.8, -10.52, -10.91, -10.91, -10.91, -11.17, -11.17, -11.26, -11.82, -11.82, -12.38, -11.72, -11.34, -11.34, -11.72, -11.72, -11.81, -11.81, -11.6, -11.36, -11.72, -11.72, -11.72, -11.69, -11.44, -11.42, -11.18, -10.81, -10.91, -10.55, -10.55, -9.56, -9.56, -8.87, -8.22, -8.57, -8.24, -7.91, -7.94, -7.61, -7.96, -7.68, -7.35, -7.41, -7.44, -7.2, -6.91, -6.55, -6.7, -6.44, -5.69, 0.0, 0.0, 0.0, 0.0, 0.0, 6.71, 4.74, 3.72, 4.02, 4.02, 4.74, 4.84, 4.92, 7.15, 4.74, 4.74, 5.06, 5.06, 0.0, 0.0, 0.0, 6.32, 0.0, 0.0, 0.0, -6.01, 0.0, 0.0, 0.0, 0.0, 7.59, 6.94, 9.58, 6.79, 3.58, 3.2, 0.0, -3.6, -4.0, -3.48, -4.0, -4.47, -4.92, -4.92, -4.92, -10.65, -10.65, -10.65, -10.52, -10.91, -10.91, -10.91, -11.17, -11.17, -11.56, -11.82, -11.82, -11.99, -11.82, -11.44, -11.61, -11.72, -11.72, -11.72, -11.9, -11.6, -11.36, -11.72, -11.72, -12.05, -11.69, -11.79, -11.42, -11.18, -11.16, -10.91, -10.55, -10.55, -9.9, -9.56, -8.87, -8.87, -8.87, -8.24, -8.24, -8.24, -7.61, -7.61, -7.31, -7.68, -7.69, -7.44, -7.44, -7.2, -6.91, -7.07, -6.28, -4.46, -3.6, -3.4, -3.4, 0.0, 0.0, 0.0, 4.74, 4.74, 4.02, 4.02, 4.02, 4.43, 5.09, 4.92, 3.48, 3.2, 3.2, 6.4, 7.15, 7.15, 0.0, 0.0, 0.0, 0.0, -6.01, -7.6, -6.01, -6.01, 0.0, 7.6, -0.0, 2.82, 7.59, 6.52, 4.38, 3.13, 3.58, -2.84, -2.0, -2.0, -3.16, -4.4, -4.66, -4.66, -4.66, -10.65, -10.65, -10.65, -10.52, -10.52, -10.91, -10.91, -11.17, -11.17, -11.72, -11.44, -11.44, -11.44, -11.44, -11.06, -11.44, -11.82, -11.53, -11.53, -11.9, -11.36, -11.36, -11.36, -11.69, -11.69, -11.69, -11.42, -11.42, -11.53, -11.16, -10.79, -10.55, -10.55, -10.28, -9.56, -9.2, -9.21, -8.87, -8.87, -8.53, -8.24, -8.24, -7.9, -7.61, -7.61, -7.33, -7.69, -7.44, -7.15, -6.91, -6.52, -6.63, -5.69, -4.46, -3.6, -3.4, -3.4, 0.0, 0.0, 0.0, 3.0, 3.72, 3.0, 3.0, 3.72, 5.6, 5.81, 3.79, 3.2, 3.4, 6.8, 7.2, 5.69, 0.0, 0.0, 0.0, -3.4, -5.69, -7.6, -8.05, -8.05, 0.0, 4.74, -0.0, -0.0, 5.21, 3.58, 4.57, 3.74, 2.23, -0.0, -1.27, -1.8, -3.16, -4.4, -4.66, -4.66, -4.66, -10.26, -10.26, -10.65, -10.52, -10.52, -10.52, -10.79, -11.17, -10.79, -11.17, -11.33, -10.88, -10.88, -10.88, -10.88, -11.44, -11.82, -11.82, -11.82, -11.53, -11.6, -11.36, -11.36, -11.69, -11.69, -11.69, -11.42, -11.42, -11.16, -11.16, -10.79, -10.55, -10.55, -9.92, -9.56, -9.56, -9.21, -9.21, -8.87, -9.21, -8.86, -8.24, -8.24, -7.9, -7.96, -7.61, -7.33, -7.69, -7.44, -7.15, -6.91, -6.01, -4.83, -5.69, -4.46, -5.37, -5.37, -5.06, 0.0, 0.0, -0.0, 3.0, 3.0, 3.2, 2.26, 2.8, 5.81, 5.2, 3.22, 3.4, 3.6, 5.69, 5.69, 0.0, 0.0, 0.0, 0.0, -4.22, -6.7, -8.05, -7.6, 7.6, 5.51, 1.84, -0.0, 3.6, 1.98, 3.79, 3.84, 2.41, -0.0, -1.3, -3.0, -3.79, -4.0, -4.24, -4.24, -4.24, -10.26, -10.26, -9.97, -10.52, -10.13, -10.52, -10.4, -10.79, -10.79, -10.79, -11.17, -11.17, -10.88, -10.88, -11.06, -11.44, -11.82, -11.82, -11.82, -11.53, -11.53, -11.6, -11.36, -11.69, -11.69, -11.63, -11.42, -11.05, -11.37, -11.16, -10.79, -10.55, -10.55, -10.55, -9.56, -9.56, -9.21, -8.87, -9.21, -9.21, -8.86, -8.86, -8.24, -7.9, -8.23, -7.96, -7.68, -7.68, -7.41, -6.73, -6.79, -6.01, -5.31, -4.83, -5.69, -5.69, -5.37, -5.37, -5.06, 0.0, 0.0, -0.0, 2.26, 1.73, 2.26, 3.0, 4.43, 5.2, 4.11, 3.4, 3.6, 5.69, 3.4, 0.0, 0.0, 0.0, 0.0, -2.54, -5.69, -7.21, -7.6, 7.6, 7.21, 4.84, 2.26, -0.0, 1.41, 3.07, 3.79, 2.84, 1.41, -0.0, -1.98, -3.16, -4.0, -5.09, -5.09, -5.09, -10.26, -10.26, -9.97, -10.13, -10.13, -10.52, -10.24, -10.24, -10.4, -10.79, -10.79, -11.17, -10.88, -11.06, -11.06, -11.44, -11.44, -11.82, -11.82, -11.53, -11.53, -11.6, -11.6, -11.69, -11.32, -11.63, -11.42, -11.05, -11.37, -10.79, -10.79, -10.55, -10.55, -10.55, -9.56, -9.56, -9.21, -9.21, -9.21, -9.21, -8.86, -8.86, -8.24, -8.58, -8.23, -7.96, -7.61, -7.68, -7.02, -7.06, -6.32, -5.44, -5.31, -6.01, -5.69, -5.69, -6.32, -5.37, -5.06, -5.06, 0.0, 0.0, -0.0, 2.4, 2.4, 2.26, 4.43, 6.26, 5.6, 5.69, 5.69, 5.37, 3.2, 3.2, 5.06, 0.0, 0.0, 0.0, -3.4, -6.8, -5.69, 0.0, 8.49, 5.58, 2.26, -0.0, -0.0, 2.53, 3.79, 3.16, 2.48, -0.0, -1.55, -3.48, -4.11, -6.79, -6.79, -6.79, -9.86, -9.86, -9.58, -10.13, -10.13, -10.27, -10.13, -10.24, -10.24, -10.79, -10.79, -11.17, -11.17, -11.06, -11.06, -11.44, -11.82, -11.44, -11.99, -11.72, -11.72, -11.81, -11.6, -11.6, -11.32, -11.32, -11.05, -11.05, -11.37, -10.79, -10.79, -10.55, -10.19, -10.19, -9.56, -9.56, -9.21, -9.21, -9.57, -9.21, -9.21, -9.19, -8.94, -8.58, -8.58, -7.96, -8.32, -7.68, -7.35, -7.06, -6.64, -6.32, -6.01, -6.01, -5.69, -6.44, -5.69, -6.32, -5.37, -5.37, -5.37, 0.0, 0.0, -0.0, 2.4, 2.26, -0.0, 0.0, 6.71, 6.0, 3.0, 3.8, 3.4, 3.2, 5.06, 7.6, 0.0, 0.0, 0.0, -5.69, -5.69, 0.0, 8.49, 5.37, 2.4, -0.0, -0.0, 1.32, 3.91, 3.07, 2.95, 1.19, -0.0, -2.4, -6.01, -8.0, -8.0, -8.0, -9.58, -9.58, -9.74, -9.74, -9.74, -10.13, -10.13, -10.24, -10.24, -10.79, -10.79, -10.79, -11.33, -11.06, -11.06, -11.44, -11.44, -11.61, -11.61, -11.99, -11.72, -11.72, -11.81, -11.6, -11.32, -10.96, -11.26, -11.05, -10.99, -10.79, -10.79, -10.55, -10.19, -10.19, -9.56, -9.56, -9.21, -9.21, -9.21, -9.21, -9.21, -9.19, -8.94, -8.58, -8.3, -8.3, -8.68, -8.03, -7.68, -7.4, -7.06, -6.32, -6.87, -6.01, -6.63, -5.69, -6.44, -5.69, -5.69, -5.37, -3.4, -5.37, 0.0, -0.0, -0.0, -0.0, -0.0, -0.0, 0.0, 0.0, 3.2, 4.0, 3.6, 3.8, 3.2, 5.37, 0.0, 0.0, 0.0, -5.37, -5.69, -5.69, 0.0, 3.4, -0.0, -0.0, -0.0, -0.0, 1.32, 2.49, 2.4, -0.0, -0.0, -0.0, -4.0, -8.49, -8.49, -8.49, -9.58, -9.58, -9.74, -9.74, -9.74, -10.13, -10.13, -10.24, -10.4, -10.79, -10.79, -10.79, -11.17, -11.33, -11.06, -11.44, -11.61, -11.61, -11.75, -11.99, -11.72, -11.72, -11.72, -11.23, -11.53, -10.96, -10.96, -11.05, -10.68, -10.79, -10.79, -10.19, -10.19, -10.19, -9.56, -9.56, -9.21, -9.21, -9.21, -9.21, -8.86, -9.19, -8.94, -8.58, -8.65, -8.68, -8.38, -8.38, -8.12, -7.76, -7.13, -7.13, -6.87, -6.87, -6.63, -6.63, -5.69, -5.69, -5.69, -4.46, -3.6, -3.6, -5.69, 0.0, -0.0, -0.0, -0.0, -0.0, 0.0, 0.0, 0.0, 0.0, 3.0, 0.0, 2.26, 3.2, 0.0, 0.0, -7.6, -5.37, -5.37, -6.8, 0.0, -0.0, -0.0, -0.0, -0.0, -0.0, -0.0, -0.0, -0.0, -0.0, -0.0, -2.69, -6.01, -8.49, -8.49, -8.49, -9.58, -9.58, -9.74, -9.74, -9.74, -10.13, -10.13, -10.24, -10.4, -10.79, -10.79, -10.79, -11.17, -11.33, -11.06, -11.44, -11.61, -11.61, -11.75, -11.99, -11.72, -11.72, -11.72, -11.23, -11.53, -10.96, -10.96, -11.05, -10.68, -10.79, -10.79, -10.19, -10.19, -10.19, -9.56, -9.56, -9.21, -9.21, -9.21, -9.21, -8.86, -9.19, -8.94, -8.58, -8.65, -8.68, -8.38, -8.38, -8.12, -7.76, -7.13, -7.13, -6.87, -6.87, -6.63, -6.63, -5.69, -5.69, -5.69, -4.46, -3.6, -3.6, -5.69, 0.0, -0.0, -0.0, -0.0, -0.0, 0.0, 0.0, 0.0, 0.0, 3.0, 0.0, 2.26, 3.2, 0.0, 0.0, -7.6, -5.37, -5.37, -5.37, -3.4, 0.0, -0.0, -0.0, -0.0, -0.0, -0.0, -0.0, -0.0, -2.06, -2.06, -2.69, -7.6, -8.49, -8.49, -8.49]}]